Time,TemperatureF,DewpointF,PressureIn,WindDirection,WindDirectionDegrees,WindSpeedMPH,WindSpeedGustMPH,Humidity,HourlyPrecipIn,Conditions,Clouds,dailyrainin,SoftwareType,DateUTC
2013-02-02 00:00:00,18.0,9.2,29.79,NW,315,4.5,6.3,68,0.00,,,0.00,WUHU216HW,2013-02-02 05:00:00,
2013-02-02 00:01:00,18.0,9.2,29.79,West,270,2.9,6.3,68,0.00,,,0.00,WUHU216HW,2013-02-02 05:01:00,
2013-02-02 00:05:00,17.8,9.4,29.79,West,270,2.5,4.5,69,0.00,,,0.00,WUHU216HW,2013-02-02 05:05:00,
2013-02-02 00:06:00,17.8,9.4,29.79,West,270,2.5,4.5,69,0.00,,,0.00,WUHU216HW,2013-02-02 05:06:00,
2013-02-02 00:10:00,17.8,9.4,29.79,NW,315,2.5,5.8,69,0.00,,,0.00,WUHU216HW,2013-02-02 05:10:00,
2013-02-02 00:11:00,17.8,9.4,29.79,NW,315,2.5,5.8,69,0.00,,,0.00,WUHU216HW,2013-02-02 05:11:00,
2013-02-02 00:15:00,17.6,9.8,29.80,NNW,338,1.8,5.8,71,0.00,,,0.00,WUHU216HW,2013-02-02 05:15:00,
2013-02-02 00:16:00,17.6,9.8,29.80,NNW,338,1.8,5.8,71,0.00,,,0.00,WUHU216HW,2013-02-02 05:16:00,
2013-02-02 00:20:00,17.6,9.8,29.80,NNW,338,5.6,5.6,71,0.00,,,0.00,WUHU216HW,2013-02-02 05:20:00,
2013-02-02 00:21:00,17.6,9.8,29.80,NNW,338,5.6,5.6,71,0.00,,,0.00,WUHU216HW,2013-02-02 05:21:00,
2013-02-02 00:25:00,17.6,9.5,29.80,West,270,6.9,8.5,70,0.00,,,0.00,WUHU216HW,2013-02-02 05:25:00,
2013-02-02 00:26:00,17.6,9.5,29.80,West,270,6.9,8.5,70,0.00,,,0.00,WUHU216HW,2013-02-02 05:26:00,
2013-02-02 00:30:00,17.5,9.0,29.80,NNW,338,7.6,8.5,69,0.00,,,0.00,WUHU216HW,2013-02-02 05:30:00,
2013-02-02 00:31:00,17.5,9.0,29.80,NNW,338,7.6,8.5,69,0.00,,,0.00,WUHU216HW,2013-02-02 05:31:00,
2013-02-02 00:35:00,17.5,9.0,29.80,West,270,4.7,8.9,69,0.00,,,0.00,WUHU216HW,2013-02-02 05:35:00,
2013-02-02 00:36:00,17.5,9.0,29.80,West,270,4.7,8.9,69,0.00,,,0.00,WUHU216HW,2013-02-02 05:36:00,
2013-02-02 00:37:00,17.5,9.0,29.80,NNW,338,3.4,8.9,69,0.00,,,0.00,WUHU216HW,2013-02-02 05:37:00,
2013-02-02 00:41:00,17.3,8.8,29.80,WNW,293,6.9,8.9,69,0.00,,,0.00,WUHU216HW,2013-02-02 05:41:00,
2013-02-02 00:42:00,17.3,8.8,29.80,West,270,9.2,9.2,69,0.00,,,0.00,WUHU216HW,2013-02-02 05:42:00,
2013-02-02 00:46:00,17.1,8.6,29.80,WNW,293,4.3,9.2,69,0.00,,,0.00,WUHU216HW,2013-02-02 05:46:00,
2013-02-02 00:47:00,17.1,8.3,29.80,NNW,338,3.4,9.2,68,0.00,,,0.00,WUHU216HW,2013-02-02 05:47:00,
2013-02-02 00:51:00,16.9,8.5,29.81,WNW,293,3.4,9.4,69,0.00,,,0.00,WUHU216HW,2013-02-02 05:51:00,
2013-02-02 00:52:00,16.9,8.5,29.81,WNW,293,5.4,9.4,69,0.00,,,0.00,WUHU216HW,2013-02-02 05:52:00,
2013-02-02 00:56:00,16.9,8.5,29.81,NNW,338,2.5,9.4,69,0.00,,,0.00,WUHU216HW,2013-02-02 05:56:00,
2013-02-02 00:57:00,16.9,8.5,29.81,North,0,6.9,9.4,69,0.00,,,0.00,WUHU216HW,2013-02-02 05:57:00,
2013-02-02 01:01:00,16.9,7.8,29.81,NW,315,8.5,8.5,67,0.00,,,0.00,WUHU216HW,2013-02-02 06:01:00,
2013-02-02 01:02:00,16.9,7.8,29.81,NNW,338,7.2,8.5,67,0.00,,,0.00,WUHU216HW,2013-02-02 06:02:00,
2013-02-02 01:06:00,16.9,7.5,29.81,North,0,9.6,9.6,66,0.00,,,0.00,WUHU216HW,2013-02-02 06:06:00,
2013-02-02 01:07:00,16.9,7.5,29.81,NW,315,11.2,11.2,66,0.00,,,0.00,WUHU216HW,2013-02-02 06:07:00,
2013-02-02 01:11:00,16.9,7.1,29.81,NNW,338,8.5,11.2,65,0.00,,,0.00,WUHU216HW,2013-02-02 06:11:00,
2013-02-02 01:12:00,16.9,7.1,29.81,NNW,338,9.2,11.2,65,0.00,,,0.00,WUHU216HW,2013-02-02 06:12:00,
2013-02-02 01:13:00,16.9,7.1,29.81,NW,315,6.3,11.2,65,0.00,,,0.00,WUHU216HW,2013-02-02 06:13:00,
2013-02-02 01:16:00,16.7,6.9,29.81,NW,315,6.9,11.2,65,0.00,,,0.00,WUHU216HW,2013-02-02 06:16:00,
2013-02-02 01:17:00,16.7,6.9,29.81,NNW,338,6.3,10.3,65,0.00,,,0.00,WUHU216HW,2013-02-02 06:17:00,
2013-02-02 01:18:00,16.7,6.9,29.81,WSW,248,6.3,10.3,65,0.00,,,0.00,WUHU216HW,2013-02-02 06:18:00,
2013-02-02 01:21:00,16.7,6.9,29.81,NW,315,12.1,12.1,65,0.00,,,0.00,WUHU216HW,2013-02-02 06:21:00,
2013-02-02 01:22:00,16.6,6.8,29.81,North,0,6.9,12.1,65,0.00,,,0.00,WUHU216HW,2013-02-02 06:22:00,
2013-02-02 01:23:00,16.6,6.8,29.81,West,270,9.4,12.1,65,0.00,,,0.00,WUHU216HW,2013-02-02 06:23:00,
2013-02-02 01:26:00,16.6,6.8,29.81,NW,315,6.7,12.1,65,0.00,,,0.00,WUHU216HW,2013-02-02 06:26:00,
2013-02-02 01:27:00,16.6,6.8,29.81,NNW,338,4.0,12.1,65,0.00,,,0.00,WUHU216HW,2013-02-02 06:27:00,
2013-02-02 01:28:00,16.6,6.8,29.81,NNW,338,5.4,12.1,65,0.00,,,0.00,WUHU216HW,2013-02-02 06:28:00,
2013-02-02 01:31:00,16.6,6.8,29.81,WNW,293,2.7,9.4,65,0.00,,,0.00,WUHU216HW,2013-02-02 06:31:00,
2013-02-02 01:32:00,16.4,6.6,29.81,NNW,338,2.5,9.4,65,0.00,,,0.00,WUHU216HW,2013-02-02 06:32:00,
2013-02-02 01:33:00,16.4,6.6,29.81,NNW,338,2.5,9.4,65,0.00,,,0.00,WUHU216HW,2013-02-02 06:33:00,
2013-02-02 01:36:00,16.2,6.4,29.81,NNW,338,2.2,5.4,65,0.00,,,0.00,WUHU216HW,2013-02-02 06:36:00,
2013-02-02 01:37:00,16.2,6.4,29.81,WNW,293,2.5,5.4,65,0.00,,,0.00,WUHU216HW,2013-02-02 06:37:00,
2013-02-02 01:38:00,16.2,6.4,29.81,NNW,338,2.2,2.7,65,0.00,,,0.00,WUHU216HW,2013-02-02 06:38:00,
2013-02-02 01:41:00,16.0,6.2,29.81,North,0,4.0,4.0,65,0.00,,,0.00,WUHU216HW,2013-02-02 06:41:00,
2013-02-02 01:42:00,16.0,6.2,29.81,NNW,338,2.5,4.0,65,0.00,,,0.00,WUHU216HW,2013-02-02 06:42:00,
2013-02-02 01:43:00,16.0,6.2,29.82,NW,315,5.1,5.1,65,0.00,,,0.00,WUHU216HW,2013-02-02 06:43:00,
2013-02-02 01:46:00,16.0,6.2,29.82,NW,315,2.2,6.0,65,0.00,,,0.00,WUHU216HW,2013-02-02 06:46:00,
2013-02-02 01:47:00,16.0,6.2,29.81,NNW,338,3.6,6.0,65,0.00,,,0.00,WUHU216HW,2013-02-02 06:47:00,
2013-02-02 01:48:00,16.0,6.2,29.82,NNW,338,6.5,6.5,65,0.00,,,0.00,WUHU216HW,2013-02-02 06:48:00,
2013-02-02 01:49:00,16.0,6.2,29.82,NNW,338,6.5,6.5,65,0.00,,,0.00,WUHU216HW,2013-02-02 06:49:00,
2013-02-02 01:52:00,16.0,6.2,29.82,NNW,338,2.5,7.8,65,0.00,,,0.00,WUHU216HW,2013-02-02 06:52:00,
2013-02-02 01:53:00,16.0,6.2,29.82,North,0,4.0,7.8,65,0.00,,,0.00,WUHU216HW,2013-02-02 06:53:00,
2013-02-02 01:54:00,15.8,6.0,29.82,NNW,338,2.2,7.8,65,0.00,,,0.00,WUHU216HW,2013-02-02 06:54:00,
2013-02-02 01:57:00,15.8,6.0,29.82,NW,315,5.1,7.8,65,0.00,,,0.00,WUHU216HW,2013-02-02 06:57:00,
2013-02-02 01:58:00,15.8,6.0,29.82,NW,315,2.2,7.8,65,0.00,,,0.00,WUHU216HW,2013-02-02 06:58:00,
2013-02-02 01:59:00,15.8,6.4,29.82,West,270,4.5,7.8,66,0.00,,,0.00,WUHU216HW,2013-02-02 06:59:00,
2013-02-02 02:02:00,15.7,6.2,29.82,NNW,338,5.4,8.9,66,0.00,,,0.00,WUHU216HW,2013-02-02 07:02:00,
2013-02-02 02:03:00,15.7,6.2,29.82,NW,315,4.0,8.9,66,0.00,,,0.00,WUHU216HW,2013-02-02 07:03:00,
2013-02-02 02:04:00,15.7,6.2,29.82,NW,315,5.8,8.9,66,0.00,,,0.00,WUHU216HW,2013-02-02 07:04:00,
2013-02-02 02:07:00,15.7,6.2,29.82,West,270,4.0,8.9,66,0.00,,,0.00,WUHU216HW,2013-02-02 07:07:00,
2013-02-02 02:08:00,15.7,6.2,29.82,NW,315,4.3,8.9,66,0.00,,,0.00,WUHU216HW,2013-02-02 07:08:00,
2013-02-02 02:09:00,15.7,6.2,29.83,WNW,293,6.9,8.9,66,0.00,,,0.00,WUHU216HW,2013-02-02 07:09:00,
2013-02-02 02:12:00,15.7,6.2,29.82,West,270,4.5,6.9,66,0.00,,,0.00,WUHU216HW,2013-02-02 07:12:00,
2013-02-02 02:13:00,15.7,6.2,29.82,NW,315,3.4,6.9,66,0.00,,,0.00,WUHU216HW,2013-02-02 07:13:00,
2013-02-02 02:14:00,15.7,6.2,29.82,WNW,293,4.3,6.9,66,0.00,,,0.00,WUHU216HW,2013-02-02 07:14:00,
2013-02-02 02:17:00,15.7,6.2,29.82,NW,315,6.3,6.9,66,0.00,,,0.00,WUHU216HW,2013-02-02 07:17:00,
2013-02-02 02:18:00,15.7,6.2,29.82,West,270,7.8,7.8,66,0.00,,,0.00,WUHU216HW,2013-02-02 07:18:00,
2013-02-02 02:19:00,15.5,6.0,29.83,NW,315,4.0,7.8,66,0.00,,,0.00,WUHU216HW,2013-02-02 07:19:00,
2013-02-02 02:22:00,15.5,6.0,29.83,NW,315,3.1,7.8,66,0.00,,,0.00,WUHU216HW,2013-02-02 07:22:00,
2013-02-02 02:23:00,15.5,6.0,29.83,NW,315,1.8,7.8,66,0.00,,,0.00,WUHU216HW,2013-02-02 07:23:00,
2013-02-02 02:24:00,15.5,6.0,29.82,NW,315,3.8,7.8,66,0.00,,,0.00,WUHU216HW,2013-02-02 07:24:00,
2013-02-02 02:27:00,15.5,6.0,29.83,NNW,338,3.1,7.8,66,0.00,,,0.00,WUHU216HW,2013-02-02 07:27:00,
2013-02-02 02:28:00,15.3,5.9,29.83,NNW,338,4.0,7.2,66,0.00,,,0.00,WUHU216HW,2013-02-02 07:28:00,
2013-02-02 02:29:00,15.3,5.9,29.83,NW,315,2.9,7.2,66,0.00,,,0.00,WUHU216HW,2013-02-02 07:29:00,
2013-02-02 02:33:00,15.3,5.9,29.83,WSW,248,5.8,7.2,66,0.00,,,0.00,WUHU216HW,2013-02-02 07:33:00,
2013-02-02 02:34:00,15.1,5.8,29.83,NW,315,3.6,7.2,66,0.00,,,0.00,WUHU216HW,2013-02-02 07:34:00,
2013-02-02 02:38:00,15.1,6.0,29.83,NNW,338,4.5,5.8,67,0.00,,,0.00,WUHU216HW,2013-02-02 07:38:00,
2013-02-02 02:39:00,15.1,6.0,29.83,NNW,338,2.5,5.8,67,0.00,,,0.00,WUHU216HW,2013-02-02 07:39:00,
2013-02-02 02:40:00,15.1,6.0,29.83,NNW,338,2.5,5.8,67,0.00,,,0.00,WUHU216HW,2013-02-02 07:40:00,
2013-02-02 02:43:00,15.1,6.0,29.84,NNW,338,2.7,4.5,67,0.00,,,0.00,WUHU216HW,2013-02-02 07:43:00,
2013-02-02 02:44:00,15.1,6.0,29.83,NW,315,1.8,4.5,67,0.00,,,0.00,WUHU216HW,2013-02-02 07:44:00,
2013-02-02 02:45:00,15.1,6.0,29.83,NW,315,3.4,4.5,67,0.00,,,0.00,WUHU216HW,2013-02-02 07:45:00,
2013-02-02 02:48:00,14.9,6.0,29.83,NNW,338,1.6,3.6,67,0.00,,,0.00,WUHU216HW,2013-02-02 07:48:00,
2013-02-02 02:49:00,14.9,6.0,29.83,NW,315,4.0,4.0,67,0.00,,,0.00,WUHU216HW,2013-02-02 07:49:00,
2013-02-02 02:50:00,14.9,6.0,29.83,NW,315,2.9,4.0,67,0.00,,,0.00,WUHU216HW,2013-02-02 07:50:00,
2013-02-02 02:53:00,14.9,6.0,29.83,NNW,338,2.5,4.0,67,0.00,,,0.00,WUHU216HW,2013-02-02 07:53:00,
2013-02-02 02:54:00,14.9,6.0,29.83,NNW,338,3.6,4.0,67,0.00,,,0.00,WUHU216HW,2013-02-02 07:54:00,
2013-02-02 02:55:00,14.8,5.8,29.83,NW,315,2.9,4.0,67,0.00,,,0.00,WUHU216HW,2013-02-02 07:55:00,
2013-02-02 02:58:00,14.9,6.0,29.83,NNW,338,4.0,4.0,67,0.00,,,0.00,WUHU216HW,2013-02-02 07:58:00,
2013-02-02 02:59:00,14.9,6.0,29.83,NNW,338,4.0,4.0,67,0.00,,,0.00,WUHU216HW,2013-02-02 07:59:00,
2013-02-02 03:00:00,14.8,5.8,29.83,NW,315,3.6,4.0,67,0.00,,,0.00,WUHU216HW,2013-02-02 08:00:00,
2013-02-02 03:05:00,14.8,5.8,29.83,NNW,338,1.3,4.0,67,0.00,,,0.00,WUHU216HW,2013-02-02 08:05:00,
2013-02-02 03:06:00,14.8,5.8,29.83,NNW,338,1.6,4.0,67,0.00,,,0.00,WUHU216HW,2013-02-02 08:06:00,
2013-02-02 03:11:00,14.6,5.6,29.83,NW,315,1.8,2.9,67,0.00,,,0.00,WUHU216HW,2013-02-02 08:11:00,
2013-02-02 03:16:00,14.4,5.8,29.83,NW,315,2.0,2.9,68,0.00,,,0.00,WUHU216HW,2013-02-02 08:16:00,
2013-02-02 03:21:00,14.2,5.6,29.83,NW,315,1.8,4.5,68,0.00,,,0.00,WUHU216HW,2013-02-02 08:21:00,
2013-02-02 03:22:00,14.2,5.6,29.83,NW,315,1.8,4.5,68,0.00,,,0.00,WUHU216HW,2013-02-02 08:22:00,
2013-02-02 03:26:00,14.2,5.2,29.83,NW,315,1.3,4.7,67,0.00,,,0.00,WUHU216HW,2013-02-02 08:26:00,
2013-02-02 03:27:00,14.2,5.2,29.83,NW,315,1.3,4.7,67,0.00,,,0.00,WUHU216HW,2013-02-02 08:27:00,
2013-02-02 03:31:00,14.2,5.2,29.83,NW,315,0.9,4.7,67,0.00,,,0.00,WUHU216HW,2013-02-02 08:31:00,
2013-02-02 03:32:00,14.2,5.2,29.83,NW,315,0.9,4.7,67,0.00,,,0.00,WUHU216HW,2013-02-02 08:32:00,
2013-02-02 03:36:00,14.0,5.1,29.83,NW,315,0.7,2.7,67,0.00,,,0.00,WUHU216HW,2013-02-02 08:36:00,
2013-02-02 03:37:00,14.0,5.1,29.83,NW,315,0.7,2.7,67,0.00,,,0.00,WUHU216HW,2013-02-02 08:37:00,
2013-02-02 03:41:00,14.0,5.1,29.83,WNW,293,1.1,2.2,67,0.00,,,0.00,WUHU216HW,2013-02-02 08:41:00,
2013-02-02 03:42:00,14.0,5.1,29.83,WNW,293,1.1,2.2,67,0.00,,,0.00,WUHU216HW,2013-02-02 08:42:00,
2013-02-02 03:47:00,13.7,5.0,29.84,West,270,1.1,2.2,68,0.00,,,0.00,WUHU216HW,2013-02-02 08:47:00,
2013-02-02 03:52:00,13.5,4.9,29.84,WNW,293,1.8,2.5,68,0.00,,,0.00,WUHU216HW,2013-02-02 08:52:00,
2013-02-02 03:57:00,13.7,5.0,29.84,NW,315,0.4,2.5,68,0.00,,,0.00,WUHU216HW,2013-02-02 08:57:00,
2013-02-02 04:02:00,13.7,5.0,29.84,NW,315,2.2,3.4,68,0.00,,,0.00,WUHU216HW,2013-02-02 09:02:00,
2013-02-02 04:07:00,13.7,5.0,29.84,WNW,293,2.2,3.4,68,0.00,,,0.00,WUHU216HW,2013-02-02 09:07:00,
2013-02-02 04:08:00,13.7,5.0,29.84,WNW,293,2.2,3.4,68,0.00,,,0.00,WUHU216HW,2013-02-02 09:08:00,
2013-02-02 04:12:00,13.7,5.0,29.84,WNW,293,0.4,2.2,68,0.00,,,0.00,WUHU216HW,2013-02-02 09:12:00,
2013-02-02 04:13:00,13.7,5.0,29.84,NNW,338,0.2,2.2,68,0.00,,,0.00,WUHU216HW,2013-02-02 09:13:00,
2013-02-02 04:17:00,13.5,4.9,29.84,West,270,0.0,1.3,68,0.00,,,0.00,WUHU216HW,2013-02-02 09:17:00,
2013-02-02 04:18:00,13.5,4.9,29.84,West,270,0.4,1.3,68,0.00,,,0.00,WUHU216HW,2013-02-02 09:18:00,
2013-02-02 04:22:00,13.3,4.7,29.84,WSW,248,0.4,1.3,68,0.00,,,0.00,WUHU216HW,2013-02-02 09:22:00,
2013-02-02 04:23:00,13.3,4.7,29.84,West,270,0.9,1.3,68,0.00,,,0.00,WUHU216HW,2013-02-02 09:23:00,
2013-02-02 04:27:00,13.3,4.7,29.84,West,270,0.0,0.9,68,0.00,,,0.00,WUHU216HW,2013-02-02 09:27:00,
2013-02-02 04:28:00,13.3,4.7,29.84,NNW,338,0.0,0.9,68,0.00,,,0.00,WUHU216HW,2013-02-02 09:28:00,
2013-02-02 04:29:00,13.3,4.7,29.84,NW,315,0.2,0.9,68,0.00,,,0.00,WUHU216HW,2013-02-02 09:29:00,
2013-02-02 04:32:00,13.1,4.5,29.84,NW,315,0.0,0.9,68,0.00,,,0.00,WUHU216HW,2013-02-02 09:32:00,
2013-02-02 04:33:00,13.3,4.7,29.84,NW,315,0.0,0.7,68,0.00,,,0.00,WUHU216HW,2013-02-02 09:33:00,
2013-02-02 04:34:00,13.1,4.5,29.83,NW,315,0.0,0.7,68,0.00,,,0.00,WUHU216HW,2013-02-02 09:34:00,
2013-02-02 04:37:00,13.1,4.5,29.83,NW,315,0.0,0.2,68,0.00,,,0.00,WUHU216HW,2013-02-02 09:37:00,
2013-02-02 04:38:00,13.1,4.5,29.83,NW,315,0.0,0.2,68,0.00,,,0.00,WUHU216HW,2013-02-02 09:38:00,
2013-02-02 04:39:00,13.1,4.5,29.83,NW,315,0.0,0.0,68,0.00,,,0.00,WUHU216HW,2013-02-02 09:39:00,
2013-02-02 04:42:00,13.0,4.3,29.83,SSW,203,0.0,0.0,68,0.00,,,0.00,WUHU216HW,2013-02-02 09:42:00,
2013-02-02 04:43:00,13.0,4.3,29.84,SSW,203,0.0,0.0,68,0.00,,,0.00,WUHU216HW,2013-02-02 09:43:00,
2013-02-02 04:44:00,13.0,4.3,29.84,SSW,203,0.0,0.0,68,0.00,,,0.00,WUHU216HW,2013-02-02 09:44:00,
2013-02-02 04:47:00,12.6,4.3,29.84,ENE,68,0.0,0.0,69,0.00,,,0.00,WUHU216HW,2013-02-02 09:47:00,
2013-02-02 04:48:00,12.6,4.3,29.83,ENE,68,0.0,0.0,69,0.00,,,0.00,WUHU216HW,2013-02-02 09:48:00,
2013-02-02 04:49:00,12.6,4.3,29.83,ENE,68,0.0,0.0,69,0.00,,,0.00,WUHU216HW,2013-02-02 09:49:00,
2013-02-02 04:50:00,12.6,4.3,29.84,NW,315,0.4,0.4,69,0.00,,,0.00,WUHU216HW,2013-02-02 09:50:00,
2013-02-02 04:52:00,12.6,4.3,29.83,NNE,23,0.4,0.4,69,0.00,,,0.00,WUHU216HW,2013-02-02 09:52:00,
2013-02-02 04:53:00,12.6,4.3,29.83,NNE,23,0.9,0.9,69,0.00,,,0.00,WUHU216HW,2013-02-02 09:53:00,
2013-02-02 04:54:00,12.6,4.3,29.83,NNE,23,0.9,0.9,69,0.00,,,0.00,WUHU216HW,2013-02-02 09:54:00,
2013-02-02 04:55:00,12.6,4.7,29.83,NNE,23,0.4,0.9,70,0.00,,,0.00,WUHU216HW,2013-02-02 09:55:00,
2013-02-02 04:58:00,12.6,4.7,29.83,NNW,338,0.2,0.9,70,0.00,,,0.00,WUHU216HW,2013-02-02 09:58:00,
2013-02-02 04:59:00,12.6,4.7,29.83,NW,315,1.6,1.6,70,0.00,,,0.00,WUHU216HW,2013-02-02 09:59:00,
2013-02-02 05:00:00,12.6,4.7,29.83,WSW,248,1.3,1.6,70,0.00,,,0.00,WUHU216HW,2013-02-02 10:00:00,
2013-02-02 05:03:00,12.6,4.7,29.83,WNW,293,0.0,1.6,70,0.00,,,0.00,WUHU216HW,2013-02-02 10:03:00,
2013-02-02 05:04:00,12.6,4.7,29.83,North,0,0.2,1.6,70,0.00,,,0.00,WUHU216HW,2013-02-02 10:04:00,
2013-02-02 05:05:00,12.6,4.7,29.84,NNW,338,0.2,1.6,70,0.00,,,0.00,WUHU216HW,2013-02-02 10:05:00,
2013-02-02 05:08:00,12.6,4.7,29.84,NNW,338,0.0,1.3,70,0.00,,,0.00,WUHU216HW,2013-02-02 10:08:00,
2013-02-02 05:09:00,12.6,4.7,29.84,NNW,338,0.0,1.3,70,0.00,,,0.00,WUHU216HW,2013-02-02 10:09:00,
2013-02-02 05:10:00,12.6,4.7,29.84,NNW,338,0.0,1.1,70,0.00,,,0.00,WUHU216HW,2013-02-02 10:10:00,
2013-02-02 05:13:00,12.4,4.1,29.83,West,270,0.0,0.2,69,0.00,,,0.00,WUHU216HW,2013-02-02 10:13:00,
2013-02-02 05:14:00,12.2,4.0,29.83,West,270,0.0,0.2,69,0.00,,,0.00,WUHU216HW,2013-02-02 10:14:00,
2013-02-02 05:15:00,12.2,4.0,29.83,West,270,0.0,0.2,69,0.00,,,0.00,WUHU216HW,2013-02-02 10:15:00,
2013-02-02 05:18:00,12.1,4.1,29.83,West,270,0.0,0.0,70,0.00,,,0.00,WUHU216HW,2013-02-02 10:18:00,
2013-02-02 05:19:00,12.1,4.1,29.84,West,270,0.0,0.0,70,0.00,,,0.00,WUHU216HW,2013-02-02 10:19:00,
2013-02-02 05:20:00,12.1,4.1,29.84,West,270,0.0,0.0,70,0.00,,,0.00,WUHU216HW,2013-02-02 10:20:00,
2013-02-02 05:24:00,11.9,4.0,29.83,West,270,0.0,0.0,70,0.00,,,0.00,WUHU216HW,2013-02-02 10:24:00,
2013-02-02 05:25:00,11.9,4.0,29.83,SSW,203,0.0,0.0,70,0.00,,,0.00,WUHU216HW,2013-02-02 10:25:00,
2013-02-02 05:29:00,11.7,3.8,29.83,SE,135,0.4,0.4,70,0.00,,,0.00,WUHU216HW,2013-02-02 10:29:00,
2013-02-02 05:30:00,11.5,3.6,29.83,SE,135,0.0,0.4,70,0.00,,,0.00,WUHU216HW,2013-02-02 10:30:00,
2013-02-02 05:31:00,11.5,3.6,29.83,SE,135,0.0,0.4,70,0.00,,,0.00,WUHU216HW,2013-02-02 10:31:00,
2013-02-02 05:34:00,11.3,3.4,29.83,SE,135,0.2,0.4,70,0.00,,,0.00,WUHU216HW,2013-02-02 10:34:00,
2013-02-02 05:35:00,11.3,3.4,29.83,SE,135,0.2,0.4,70,0.00,,,0.00,WUHU216HW,2013-02-02 10:35:00,
2013-02-02 05:36:00,11.3,3.4,29.83,SSE,158,0.2,0.4,70,0.00,,,0.00,WUHU216HW,2013-02-02 10:36:00,
2013-02-02 05:39:00,11.2,3.2,29.83,SW,225,0.0,0.4,70,0.00,,,0.00,WUHU216HW,2013-02-02 10:39:00,
2013-02-02 05:40:00,11.2,3.2,29.83,SW,225,0.0,0.4,70,0.00,,,0.00,WUHU216HW,2013-02-02 10:40:00,
2013-02-02 05:41:00,11.0,3.1,29.83,SW,225,0.0,0.4,70,0.00,,,0.00,WUHU216HW,2013-02-02 10:41:00,
2013-02-02 05:44:00,11.0,3.3,29.83,North,0,0.0,0.4,71,0.00,,,0.00,WUHU216HW,2013-02-02 10:44:00,
2013-02-02 05:45:00,11.0,3.3,29.83,North,0,0.0,0.4,71,0.00,,,0.00,WUHU216HW,2013-02-02 10:45:00,
2013-02-02 05:46:00,11.0,3.3,29.83,North,0,0.0,0.4,71,0.00,,,0.00,WUHU216HW,2013-02-02 10:46:00,
2013-02-02 05:49:00,10.8,3.2,29.83,East,90,0.2,0.4,71,0.00,,,0.00,WUHU216HW,2013-02-02 10:49:00,
2013-02-02 05:50:00,10.8,3.2,29.83,East,90,0.2,0.4,71,0.00,,,0.00,WUHU216HW,2013-02-02 10:50:00,
2013-02-02 05:51:00,10.8,3.2,29.83,East,90,0.0,0.4,71,0.00,,,0.00,WUHU216HW,2013-02-02 10:51:00,
2013-02-02 05:55:00,11.0,3.6,29.83,NE,45,0.7,0.7,72,0.00,,,0.00,WUHU216HW,2013-02-02 10:55:00,
2013-02-02 05:56:00,11.0,4.2,29.83,East,90,0.4,0.7,74,0.00,,,0.00,WUHU216HW,2013-02-02 10:56:00,
2013-02-02 05:59:00,11.2,4.2,29.83,ESE,113,0.0,0.7,73,0.00,,,0.00,WUHU216HW,2013-02-02 10:59:00,
2013-02-02 06:00:00,11.2,4.2,29.83,ESE,113,0.0,0.7,73,0.00,,,0.00,WUHU216HW,2013-02-02 11:00:00,
2013-02-02 06:01:00,11.2,4.2,29.83,ESE,113,0.7,0.7,73,0.00,,,0.00,WUHU216HW,2013-02-02 11:01:00,
2013-02-02 06:05:00,11.2,4.4,29.83,North,0,0.0,0.7,74,0.00,,,0.00,WUHU216HW,2013-02-02 11:05:00,
2013-02-02 06:06:00,11.2,4.4,29.83,NNE,23,0.2,0.7,74,0.00,,,0.00,WUHU216HW,2013-02-02 11:06:00,
2013-02-02 06:10:00,11.3,4.3,29.83,East,90,0.0,0.7,73,0.00,,,0.00,WUHU216HW,2013-02-02 11:10:00,
2013-02-02 06:11:00,11.3,4.3,29.83,South,180,0.4,0.4,73,0.00,,,0.00,WUHU216HW,2013-02-02 11:11:00,
2013-02-02 06:15:00,11.2,3.8,29.83,SSE,158,1.8,1.8,72,0.00,,,0.00,WUHU216HW,2013-02-02 11:15:00,
2013-02-02 06:16:00,11.2,3.8,29.83,SSE,158,1.8,1.8,72,0.00,,,0.00,WUHU216HW,2013-02-02 11:16:00,
2013-02-02 06:20:00,10.8,3.4,29.83,ESE,113,0.0,1.8,72,0.00,,,0.00,WUHU216HW,2013-02-02 11:20:00,
2013-02-02 06:21:00,10.8,3.4,29.83,ESE,113,0.0,1.8,72,0.00,,,0.00,WUHU216HW,2013-02-02 11:21:00,
2013-02-02 06:25:00,10.4,3.1,29.83,SSE,158,0.4,0.9,72,0.00,,,0.00,WUHU216HW,2013-02-02 11:25:00,
2013-02-02 06:26:00,10.4,3.1,29.83,SSE,158,0.4,0.4,72,0.00,,,0.00,WUHU216HW,2013-02-02 11:26:00,
2013-02-02 06:31:00,10.3,3.0,29.83,SE,135,0.0,0.4,72,0.00,,,0.00,WUHU216HW,2013-02-02 11:31:00,
2013-02-02 06:35:00,9.9,2.9,29.83,SSE,158,0.0,0.4,73,0.00,,,0.00,WUHU216HW,2013-02-02 11:35:00,
2013-02-02 06:36:00,9.9,2.9,29.83,SSE,158,0.0,0.4,73,0.00,,,0.00,WUHU216HW,2013-02-02 11:36:00,
2013-02-02 06:41:00,9.9,3.2,29.83,SSW,203,1.8,1.8,74,0.00,,,0.00,WUHU216HW,2013-02-02 11:41:00,
2013-02-02 06:42:00,9.9,3.2,29.83,SSW,203,1.8,1.8,74,0.00,,,0.00,WUHU216HW,2013-02-02 11:42:00,
2013-02-02 06:46:00,9.9,3.2,29.83,South,180,1.1,1.8,74,0.00,,,0.00,WUHU216HW,2013-02-02 11:46:00,
2013-02-02 06:47:00,10.1,3.3,29.84,SW,225,1.1,1.8,74,0.00,,,0.00,WUHU216HW,2013-02-02 11:47:00,
2013-02-02 06:51:00,9.9,2.9,29.84,WSW,248,2.9,2.9,73,0.00,,,0.00,WUHU216HW,2013-02-02 11:51:00,
2013-02-02 06:52:00,9.9,2.9,29.84,WSW,248,1.6,2.9,73,0.00,,,0.00,WUHU216HW,2013-02-02 11:52:00,
2013-02-02 06:56:00,10.1,3.1,29.83,SSW,203,1.6,2.9,73,0.00,,,0.00,WUHU216HW,2013-02-02 11:56:00,
2013-02-02 06:57:00,10.1,3.1,29.83,SW,225,2.5,2.9,73,0.00,,,0.00,WUHU216HW,2013-02-02 11:57:00,
2013-02-02 07:01:00,10.3,3.3,29.84,WSW,248,1.8,2.5,73,0.00,,,0.00,WUHU216HW,2013-02-02 12:01:00,
2013-02-02 07:02:00,10.3,3.3,29.84,SW,225,1.3,2.5,73,0.00,,,0.00,WUHU216HW,2013-02-02 12:02:00,
2013-02-02 07:03:00,10.3,3.3,29.84,SW,225,1.1,2.5,73,0.00,,,0.00,WUHU216HW,2013-02-02 12:03:00,
2013-02-02 07:06:00,10.4,3.4,29.84,South,180,2.0,2.2,73,0.00,,,0.00,WUHU216HW,2013-02-02 12:06:00,
2013-02-02 07:07:00,10.4,3.4,29.84,South,180,2.0,2.2,73,0.00,,,0.00,WUHU216HW,2013-02-02 12:07:00,
2013-02-02 07:08:00,10.3,3.3,29.84,South,180,1.8,2.2,73,0.00,,,0.00,WUHU216HW,2013-02-02 12:08:00,
2013-02-02 07:12:00,10.3,3.3,29.83,SE,135,0.4,2.2,73,0.00,,,0.00,WUHU216HW,2013-02-02 12:12:00,
2013-02-02 07:13:00,10.3,3.3,29.83,SSE,158,0.9,2.2,73,0.00,,,0.00,WUHU216HW,2013-02-02 12:13:00,
2013-02-02 07:17:00,10.1,3.1,29.84,SSE,158,0.7,1.8,73,0.00,,,0.00,WUHU216HW,2013-02-02 12:17:00,
2013-02-02 07:18:00,10.1,3.1,29.84,SSE,158,0.7,1.8,73,0.00,,,0.00,WUHU216HW,2013-02-02 12:18:00,
2013-02-02 07:22:00,10.1,3.1,29.84,SE,135,1.6,1.6,73,0.00,,,0.00,WUHU216HW,2013-02-02 12:22:00,
2013-02-02 07:23:00,10.1,3.1,29.84,SE,135,1.3,1.6,73,0.00,,,0.00,WUHU216HW,2013-02-02 12:23:00,
2013-02-02 07:27:00,10.1,3.3,29.84,SSE,158,1.3,1.6,74,0.00,,,0.00,WUHU216HW,2013-02-02 12:27:00,
2013-02-02 07:28:00,10.1,3.3,29.84,SSE,158,1.3,1.6,74,0.00,,,0.00,WUHU216HW,2013-02-02 12:28:00,
2013-02-02 07:32:00,10.1,3.3,29.84,SE,135,1.1,1.6,74,0.00,,,0.00,WUHU216HW,2013-02-02 12:32:00,
2013-02-02 07:33:00,10.1,3.3,29.84,SE,135,0.9,1.6,74,0.00,,,0.00,WUHU216HW,2013-02-02 12:33:00,
2013-02-02 07:34:00,10.1,3.3,29.84,SE,135,0.9,1.6,74,0.00,,,0.00,WUHU216HW,2013-02-02 12:34:00,
2013-02-02 07:37:00,10.1,3.3,29.84,South,180,0.7,1.6,74,0.00,,,0.00,WUHU216HW,2013-02-02 12:37:00,
2013-02-02 07:38:00,10.1,3.3,29.84,South,180,0.7,1.6,74,0.00,,,0.00,WUHU216HW,2013-02-02 12:38:00,
2013-02-02 07:39:00,9.9,3.2,29.84,SSW,203,0.9,1.6,74,0.00,,,0.00,WUHU216HW,2013-02-02 12:39:00,
2013-02-02 07:43:00,10.3,3.8,29.84,South,180,0.4,2.2,75,0.00,,,0.00,WUHU216HW,2013-02-02 12:43:00,
2013-02-02 07:44:00,10.1,3.6,29.84,SSE,158,0.9,2.2,75,0.00,,,0.00,WUHU216HW,2013-02-02 12:44:00,
2013-02-02 07:48:00,10.4,4.0,29.84,SSE,158,0.9,2.2,75,0.00,,,0.00,WUHU216HW,2013-02-02 12:48:00,
2013-02-02 07:49:00,10.3,3.8,29.84,SSE,158,0.2,1.6,75,0.00,,,0.00,WUHU216HW,2013-02-02 12:49:00,
2013-02-02 07:53:00,10.4,4.0,29.84,SSW,203,1.8,1.8,75,0.00,,,0.00,WUHU216HW,2013-02-02 12:53:00,
2013-02-02 07:54:00,10.6,4.1,29.84,SSE,158,0.4,1.8,75,0.00,,,0.00,WUHU216HW,2013-02-02 12:54:00,
2013-02-02 07:58:00,10.8,4.3,29.84,SW,225,1.1,1.8,75,0.00,,,0.00,WUHU216HW,2013-02-02 12:58:00,
2013-02-02 07:59:00,10.8,4.3,29.84,SW,225,1.1,1.8,75,0.00,,,0.00,WUHU216HW,2013-02-02 12:59:00,
2013-02-02 08:03:00,11.0,4.5,29.84,SSE,158,2.2,2.5,75,0.00,,,0.00,WUHU216HW,2013-02-02 13:03:00,
2013-02-02 08:04:00,11.2,4.7,29.84,SE,135,0.9,2.5,75,0.00,,,0.00,WUHU216HW,2013-02-02 13:04:00,
2013-02-02 08:08:00,11.5,5.0,29.84,South,180,1.1,2.7,75,0.00,,,0.00,WUHU216HW,2013-02-02 13:08:00,
2013-02-02 08:09:00,11.5,5.0,29.84,South,180,1.6,2.7,75,0.00,,,0.00,WUHU216HW,2013-02-02 13:09:00,
2013-02-02 08:13:00,11.9,5.4,29.84,South,180,2.5,2.7,75,0.00,,,0.00,WUHU216HW,2013-02-02 13:13:00,
2013-02-02 08:14:00,11.9,5.4,29.84,SE,135,2.0,2.7,75,0.00,,,0.00,WUHU216HW,2013-02-02 13:14:00,
2013-02-02 08:18:00,12.2,6.0,29.84,South,180,2.5,2.5,76,0.00,,,0.00,WUHU216HW,2013-02-02 13:18:00,
2013-02-02 08:19:00,12.4,6.2,29.84,SE,135,2.7,2.7,76,0.00,,,0.00,WUHU216HW,2013-02-02 13:19:00,
2013-02-02 08:23:00,12.6,6.1,29.84,South,180,4.0,4.0,75,0.00,,,0.00,WUHU216HW,2013-02-02 13:23:00,
2013-02-02 08:24:00,12.8,6.6,29.84,SSE,158,2.5,4.0,76,0.00,,,0.00,WUHU216HW,2013-02-02 13:24:00,
2013-02-02 08:25:00,12.8,6.6,29.84,SSE,158,2.5,4.0,76,0.00,,,0.00,WUHU216HW,2013-02-02 13:25:00,
2013-02-02 08:29:00,13.1,6.9,29.84,South,180,3.4,4.0,76,0.00,,,0.00,WUHU216HW,2013-02-02 13:29:00,
2013-02-02 08:30:00,13.3,7.1,29.84,South,180,3.6,4.0,76,0.00,,,0.00,WUHU216HW,2013-02-02 13:30:00,
2013-02-02 08:34:00,13.3,7.1,29.84,SSE,158,3.1,5.4,76,0.00,,,0.00,WUHU216HW,2013-02-02 13:34:00,
2013-02-02 08:35:00,13.5,7.3,29.84,South,180,3.6,5.8,76,0.00,,,0.00,WUHU216HW,2013-02-02 13:35:00,
2013-02-02 08:39:00,13.7,7.5,29.84,SE,135,2.7,6.7,76,0.00,,,0.00,WUHU216HW,2013-02-02 13:39:00,
2013-02-02 08:40:00,13.9,7.7,29.84,SSW,203,6.7,6.7,76,0.00,,,0.00,WUHU216HW,2013-02-02 13:40:00,
2013-02-02 08:44:00,14.2,8.0,29.84,South,180,5.4,6.7,76,0.00,,,0.00,WUHU216HW,2013-02-02 13:44:00,
2013-02-02 08:45:00,14.2,8.0,29.84,SSE,158,4.3,6.7,76,0.00,,,0.00,WUHU216HW,2013-02-02 13:45:00,
2013-02-02 08:49:00,14.6,8.4,29.84,SSE,158,3.1,6.7,76,0.00,,,0.00,WUHU216HW,2013-02-02 13:49:00,
2013-02-02 08:50:00,14.8,8.6,29.84,SSE,158,3.6,6.7,76,0.00,,,0.00,WUHU216HW,2013-02-02 13:50:00,
2013-02-02 08:54:00,15.1,8.9,29.84,SSE,158,7.2,7.2,76,0.00,,,0.00,WUHU216HW,2013-02-02 13:54:00,
2013-02-02 08:55:00,15.1,8.9,29.84,SSE,158,6.3,7.2,76,0.00,,,0.00,WUHU216HW,2013-02-02 13:55:00,
2013-02-02 08:59:00,15.3,8.7,29.84,South,180,2.5,7.2,75,0.00,,,0.00,WUHU216HW,2013-02-02 13:59:00,
2013-02-02 09:00:00,15.3,8.7,29.84,SSW,203,1.1,7.2,75,0.00,,,0.00,WUHU216HW,2013-02-02 14:00:00,
2013-02-02 09:04:00,15.7,9.1,29.84,SW,225,3.4,6.9,75,0.00,,,0.00,WUHU216HW,2013-02-02 14:04:00,
2013-02-02 09:05:00,15.7,9.1,29.84,SSW,203,9.4,9.4,75,0.00,,,0.00,WUHU216HW,2013-02-02 14:05:00,
2013-02-02 09:09:00,16.2,9.6,29.84,SSE,158,2.5,9.4,75,0.00,,,0.00,WUHU216HW,2013-02-02 14:09:00,
2013-02-02 09:10:00,16.2,9.6,29.83,SSE,158,4.0,9.4,75,0.00,,,0.00,WUHU216HW,2013-02-02 14:10:00,
2013-02-02 09:11:00,16.4,9.8,29.83,SSE,158,1.6,9.4,75,0.00,,,0.00,WUHU216HW,2013-02-02 14:11:00,
2013-02-02 09:14:00,16.9,10.0,29.83,SSW,203,6.3,9.4,74,0.00,,,0.00,WUHU216HW,2013-02-02 14:14:00,
2013-02-02 09:15:00,16.9,10.0,29.83,SSW,203,6.3,6.3,74,0.00,,,0.00,WUHU216HW,2013-02-02 14:15:00,
2013-02-02 09:16:00,17.3,10.4,29.83,ESE,113,4.5,6.3,74,0.00,,,0.00,WUHU216HW,2013-02-02 14:16:00,
2013-02-02 09:19:00,17.6,10.7,29.84,SSE,158,3.4,6.3,74,0.00,,,0.00,WUHU216HW,2013-02-02 14:19:00,
2013-02-02 09:20:00,17.6,10.7,29.84,SSE,158,3.4,6.3,74,0.00,,,0.00,WUHU216HW,2013-02-02 14:20:00,
2013-02-02 09:21:00,18.0,10.7,29.84,SE,135,6.7,6.7,73,0.00,,,0.00,WUHU216HW,2013-02-02 14:21:00,
2013-02-02 09:25:00,18.4,10.8,29.84,SSE,158,3.8,6.7,72,0.00,,,0.00,WUHU216HW,2013-02-02 14:25:00,
2013-02-02 09:26:00,18.4,10.8,29.84,SE,135,4.5,6.7,72,0.00,,,0.00,WUHU216HW,2013-02-02 14:26:00,
2013-02-02 09:30:00,18.9,11.3,29.83,SE,135,6.3,6.7,72,0.00,,,0.00,WUHU216HW,2013-02-02 14:30:00,
2013-02-02 09:32:00,18.9,11.3,29.83,SE,135,3.6,6.3,72,0.00,,,0.00,WUHU216HW,2013-02-02 14:32:00,
2013-02-02 09:35:00,19.1,11.4,29.83,SSE,158,3.8,6.3,72,0.00,,,0.00,WUHU216HW,2013-02-02 14:35:00,
2013-02-02 09:37:00,19.1,11.2,29.83,SSE,158,2.5,6.3,71,0.00,,,0.00,WUHU216HW,2013-02-02 14:37:00,
2013-02-02 09:40:00,19.1,11.2,29.83,SSE,158,6.0,6.0,71,0.00,,,0.00,WUHU216HW,2013-02-02 14:40:00,
2013-02-02 09:41:00,19.1,10.8,29.82,ESE,113,4.0,6.0,70,0.00,,,0.00,WUHU216HW,2013-02-02 14:41:00,
2013-02-02 09:43:00,19.3,11.4,29.82,SSE,158,4.7,6.0,71,0.00,,,0.00,WUHU216HW,2013-02-02 14:43:00,
2013-02-02 09:45:00,19.6,11.6,29.82,SE,135,4.7,6.0,71,0.00,,,0.00,WUHU216HW,2013-02-02 14:45:00,
2013-02-02 09:46:00,19.8,11.5,29.82,SSE,158,5.8,6.0,70,0.00,,,0.00,WUHU216HW,2013-02-02 14:46:00,
2013-02-02 09:48:00,20.2,11.5,29.82,SE,135,2.5,6.5,69,0.00,,,0.00,WUHU216HW,2013-02-02 14:48:00,
2013-02-02 09:50:00,20.5,11.9,29.82,SSE,158,4.9,6.5,69,0.00,,,0.00,WUHU216HW,2013-02-02 14:50:00,
2013-02-02 09:51:00,20.5,11.9,29.82,SSE,158,4.9,6.5,69,0.00,,,0.00,WUHU216HW,2013-02-02 14:51:00,
2013-02-02 09:53:00,20.7,12.1,29.82,SSE,158,3.1,6.5,69,0.00,,,0.00,WUHU216HW,2013-02-02 14:53:00,
2013-02-02 09:55:00,21.4,12.8,29.82,SSE,158,5.1,6.5,69,0.00,,,0.00,WUHU216HW,2013-02-02 14:55:00,
2013-02-02 09:56:00,21.4,12.8,29.82,SSE,158,5.1,6.5,69,0.00,,,0.00,WUHU216HW,2013-02-02 14:56:00,
2013-02-02 09:58:00,21.8,12.4,29.82,SE,135,5.4,6.5,67,0.00,,,0.00,WUHU216HW,2013-02-02 14:58:00,
2013-02-02 10:00:00,22.0,13.0,29.82,SE,135,4.7,6.5,68,0.00,,,0.00,WUHU216HW,2013-02-02 15:00:00,
2013-02-02 10:01:00,22.1,13.1,29.82,SE,135,6.5,6.5,68,0.00,,,0.00,WUHU216HW,2013-02-02 15:01:00,
2013-02-02 10:03:00,22.1,12.4,29.82,SE,135,3.6,6.5,66,0.00,,,0.00,WUHU216HW,2013-02-02 15:03:00,
2013-02-02 10:05:00,22.3,13.0,29.82,South,180,5.1,6.5,67,0.00,,,0.00,WUHU216HW,2013-02-02 15:05:00,
2013-02-02 10:06:00,22.3,13.0,29.82,SSE,158,3.4,6.5,67,0.00,,,0.00,WUHU216HW,2013-02-02 15:06:00,
2013-02-02 10:08:00,22.7,13.0,29.82,SSW,203,5.1,6.5,66,0.00,,,0.00,WUHU216HW,2013-02-02 15:08:00,
2013-02-02 10:10:00,22.7,13.0,29.82,SSE,158,5.4,6.5,66,0.00,,,0.00,WUHU216HW,2013-02-02 15:10:00,
2013-02-02 10:11:00,22.7,13.0,29.82,SSW,203,4.7,5.4,66,0.00,,,0.00,WUHU216HW,2013-02-02 15:11:00,
2013-02-02 10:13:00,22.7,13.0,29.81,South,180,4.7,6.9,66,0.00,,,0.00,WUHU216HW,2013-02-02 15:13:00,
2013-02-02 10:15:00,22.9,13.1,29.81,SE,135,4.5,6.9,66,0.00,,,0.00,WUHU216HW,2013-02-02 15:15:00,
2013-02-02 10:16:00,23.0,13.0,29.81,SSE,158,3.4,6.9,65,0.00,,,0.00,WUHU216HW,2013-02-02 15:16:00,
2013-02-02 10:18:00,23.0,12.6,29.81,SSE,158,5.4,6.9,64,0.00,,,0.00,WUHU216HW,2013-02-02 15:18:00,
2013-02-02 10:21:00,22.7,11.9,29.81,SE,135,5.4,8.3,63,0.00,,,0.00,WUHU216HW,2013-02-02 15:21:00,
2013-02-02 10:24:00,22.7,12.2,29.81,SW,225,6.3,8.3,64,0.00,,,0.00,WUHU216HW,2013-02-02 15:24:00,
2013-02-02 10:26:00,22.7,11.9,29.81,SSW,203,5.8,8.3,63,0.00,,,0.00,WUHU216HW,2013-02-02 15:26:00,
2013-02-02 10:29:00,23.2,12.4,29.81,SSE,158,7.4,8.1,63,0.00,,,0.00,WUHU216HW,2013-02-02 15:29:00,
2013-02-02 10:31:00,23.2,12.1,29.81,SSE,158,4.9,8.1,62,0.00,,,0.00,WUHU216HW,2013-02-02 15:31:00,
2013-02-02 10:32:00,23.2,12.1,29.81,SSE,158,4.9,8.1,62,0.00,,,0.00,WUHU216HW,2013-02-02 15:32:00,
2013-02-02 10:34:00,23.4,12.6,29.81,SSW,203,2.9,8.1,63,0.00,,,0.00,WUHU216HW,2013-02-02 15:34:00,
2013-02-02 10:36:00,23.4,12.3,29.81,SSW,203,2.2,8.5,62,0.00,,,0.00,WUHU216HW,2013-02-02 15:36:00,
2013-02-02 10:37:00,23.4,12.3,29.81,SSW,203,2.2,8.5,62,0.00,,,0.00,WUHU216HW,2013-02-02 15:37:00,
2013-02-02 10:39:00,23.6,12.1,29.80,SSE,158,6.3,8.5,61,0.00,,,0.00,WUHU216HW,2013-02-02 15:39:00,
2013-02-02 10:41:00,23.6,12.1,29.80,SE,135,4.9,8.5,61,0.00,,,0.00,WUHU216HW,2013-02-02 15:41:00,
2013-02-02 10:42:00,23.6,12.1,29.80,SE,135,4.9,8.5,61,0.00,,,0.00,WUHU216HW,2013-02-02 15:42:00,
2013-02-02 10:44:00,23.6,12.1,29.80,SSW,203,7.6,8.5,61,0.00,,,0.00,WUHU216HW,2013-02-02 15:44:00,
2013-02-02 10:46:00,23.8,12.3,29.80,South,180,7.8,7.8,61,0.00,,,0.00,WUHU216HW,2013-02-02 15:46:00,
2013-02-02 10:47:00,23.8,12.3,29.80,SSW,203,4.7,7.8,61,0.00,,,0.00,WUHU216HW,2013-02-02 15:47:00,
2013-02-02 10:49:00,23.9,12.4,29.80,South,180,6.3,7.8,61,0.00,,,0.00,WUHU216HW,2013-02-02 15:49:00,
2013-02-02 10:51:00,23.9,12.4,29.80,South,180,6.3,7.8,61,0.00,,,0.00,WUHU216HW,2013-02-02 15:51:00,
2013-02-02 10:52:00,24.1,12.6,29.80,South,180,6.9,7.8,61,0.00,,,0.00,WUHU216HW,2013-02-02 15:52:00,
2013-02-02 10:54:00,24.1,12.6,29.80,SSW,203,6.3,7.8,61,0.00,,,0.00,WUHU216HW,2013-02-02 15:54:00,
2013-02-02 10:57:00,24.3,12.8,29.80,SSE,158,8.3,8.3,61,0.00,,,0.00,WUHU216HW,2013-02-02 15:57:00,
2013-02-02 10:59:00,24.3,12.4,29.80,ESE,113,6.3,8.3,60,0.00,,,0.00,WUHU216HW,2013-02-02 15:59:00,
2013-02-02 11:02:00,24.3,12.0,29.79,SSE,158,6.9,8.3,59,0.00,,,0.00,WUHU216HW,2013-02-02 16:02:00,
2013-02-02 11:05:00,24.5,12.2,29.79,SSW,203,6.5,8.3,59,0.00,,,0.00,WUHU216HW,2013-02-02 16:05:00,
2013-02-02 11:07:00,24.8,12.5,29.79,SSE,158,8.3,8.3,59,0.00,,,0.00,WUHU216HW,2013-02-02 16:07:00,
2013-02-02 11:10:00,24.8,12.5,29.79,SSW,203,4.0,9.2,59,0.00,,,0.00,WUHU216HW,2013-02-02 16:10:00,
2013-02-02 11:12:00,25.0,12.7,29.79,South,180,5.1,9.2,59,0.00,,,0.00,WUHU216HW,2013-02-02 16:12:00,
2013-02-02 11:13:00,25.2,12.9,29.79,South,180,6.0,9.2,59,0.00,,,0.00,WUHU216HW,2013-02-02 16:13:00,
2013-02-02 11:15:00,25.6,13.2,29.79,SSE,158,5.6,9.2,59,0.00,,,0.00,WUHU216HW,2013-02-02 16:15:00,
2013-02-02 11:17:00,25.6,13.2,29.78,SSE,158,2.2,9.2,59,0.00,,,0.00,WUHU216HW,2013-02-02 16:17:00,
2013-02-02 11:18:00,25.7,13.3,29.78,SSW,203,4.0,6.9,59,0.00,,,0.00,WUHU216HW,2013-02-02 16:18:00,
2013-02-02 11:20:00,25.7,13.3,29.78,SSW,203,3.4,6.0,59,0.00,,,0.00,WUHU216HW,2013-02-02 16:20:00,
2013-02-02 11:22:00,25.7,13.3,29.78,SW,225,4.0,6.0,59,0.00,,,0.00,WUHU216HW,2013-02-02 16:22:00,
2013-02-02 11:23:00,25.7,13.3,29.78,SSW,203,5.6,5.6,59,0.00,,,0.00,WUHU216HW,2013-02-02 16:23:00,
2013-02-02 11:25:00,25.7,13.3,29.78,SW,225,3.1,5.6,59,0.00,,,0.00,WUHU216HW,2013-02-02 16:25:00,
2013-02-02 11:27:00,25.9,13.2,29.78,SSE,158,6.3,6.3,58,0.00,,,0.00,WUHU216HW,2013-02-02 16:27:00,
2013-02-02 11:28:00,25.7,12.5,29.77,SE,135,4.9,6.3,57,0.00,,,0.00,WUHU216HW,2013-02-02 16:28:00,
2013-02-02 11:31:00,25.7,13.0,29.77,SE,135,3.4,6.3,58,0.00,,,0.00,WUHU216HW,2013-02-02 16:31:00,
2013-02-02 11:32:00,25.9,13.2,29.77,SE,135,4.0,6.3,58,0.00,,,0.00,WUHU216HW,2013-02-02 16:32:00,
2013-02-02 11:33:00,25.9,13.5,29.77,SSW,203,1.1,6.3,59,0.00,,,0.00,WUHU216HW,2013-02-02 16:33:00,
2013-02-02 11:34:00,25.9,13.2,29.77,ESE,113,2.0,6.3,58,0.00,,,0.00,WUHU216HW,2013-02-02 16:34:00,
2013-02-02 11:36:00,25.9,12.7,29.76,SSE,158,4.3,6.3,57,0.00,,,0.00,WUHU216HW,2013-02-02 16:36:00,
2013-02-02 11:37:00,25.9,12.7,29.76,ESE,113,4.0,5.8,57,0.00,,,0.00,WUHU216HW,2013-02-02 16:37:00,
2013-02-02 11:38:00,25.9,13.2,29.76,ESE,113,2.2,5.8,58,0.00,,,0.00,WUHU216HW,2013-02-02 16:38:00,
2013-02-02 11:39:00,25.9,13.2,29.76,SE,135,1.6,5.8,58,0.00,,,0.00,WUHU216HW,2013-02-02 16:39:00,
2013-02-02 11:41:00,26.3,13.9,29.76,ESE,113,2.5,5.8,59,0.00,,,0.00,WUHU216HW,2013-02-02 16:41:00,
2013-02-02 11:42:00,26.6,13.8,29.76,SE,135,4.9,5.8,58,0.00,,,0.00,WUHU216HW,2013-02-02 16:42:00,
2013-02-02 11:43:00,26.6,13.3,29.76,ENE,68,1.1,5.8,57,0.00,,,0.00,WUHU216HW,2013-02-02 16:43:00,
2013-02-02 11:44:00,26.8,14.0,29.76,SE,135,2.5,5.8,58,0.00,,,0.00,WUHU216HW,2013-02-02 16:44:00,
2013-02-02 11:46:00,27.0,14.1,29.76,SE,135,2.5,5.4,58,0.00,,,0.00,WUHU216HW,2013-02-02 16:46:00,
2013-02-02 11:47:00,27.0,13.7,29.76,SE,135,2.5,5.4,57,0.00,,,0.00,WUHU216HW,2013-02-02 16:47:00,
2013-02-02 11:48:00,27.0,13.7,29.76,SE,135,3.4,5.4,57,0.00,,,0.00,WUHU216HW,2013-02-02 16:48:00,
2013-02-02 11:49:00,27.0,13.7,29.75,SSW,203,1.8,5.4,57,0.00,,,0.00,WUHU216HW,2013-02-02 16:49:00,
2013-02-02 11:51:00,27.2,14.3,29.75,ESE,113,2.5,5.4,58,0.00,,,0.00,WUHU216HW,2013-02-02 16:51:00,
2013-02-02 11:53:00,27.4,14.0,29.75,SSE,158,3.1,5.4,57,0.00,,,0.00,WUHU216HW,2013-02-02 16:53:00,
2013-02-02 11:54:00,27.4,14.5,29.75,South,180,3.8,5.4,58,0.00,,,0.00,WUHU216HW,2013-02-02 16:54:00,
2013-02-02 11:56:00,27.5,14.2,29.75,SSW,203,2.5,5.4,57,0.00,,,0.00,WUHU216HW,2013-02-02 16:56:00,
2013-02-02 11:58:00,27.4,14.0,29.75,SSE,158,2.9,5.4,57,0.00,,,0.00,WUHU216HW,2013-02-02 16:58:00,
2013-02-02 11:59:00,27.4,14.0,29.75,SSE,158,2.9,5.4,57,0.00,,,0.00,WUHU216HW,2013-02-02 16:59:00,
2013-02-02 12:01:00,27.2,13.9,29.75,SSE,158,2.5,5.4,57,0.00,,,0.00,WUHU216HW,2013-02-02 17:01:00,
2013-02-02 12:03:00,26.6,12.5,29.74,ESE,113,7.2,7.2,55,0.00,,,0.00,WUHU216HW,2013-02-02 17:03:00,
2013-02-02 12:04:00,26.5,12.3,29.74,SE,135,3.6,7.2,55,0.00,,,0.00,WUHU216HW,2013-02-02 17:04:00,
2013-02-02 12:06:00,26.3,12.2,29.74,SE,135,4.0,7.2,55,0.00,,,0.00,WUHU216HW,2013-02-02 17:06:00,
2013-02-02 12:08:00,26.3,12.2,29.74,SE,135,4.0,7.2,55,0.00,,,0.00,WUHU216HW,2013-02-02 17:08:00,
2013-02-02 12:09:00,26.5,12.8,29.74,SSE,158,3.8,7.2,56,0.00,,,0.00,WUHU216HW,2013-02-02 17:09:00,
2013-02-02 12:11:00,26.8,12.7,29.73,WSW,248,4.7,7.2,55,0.00,,,0.00,WUHU216HW,2013-02-02 17:11:00,
2013-02-02 12:13:00,27.4,13.2,29.74,South,180,6.3,7.6,55,0.00,,,0.00,WUHU216HW,2013-02-02 17:13:00,
2013-02-02 12:14:00,27.7,14.1,29.73,SE,135,3.6,7.6,56,0.00,,,0.00,WUHU216HW,2013-02-02 17:14:00,
2013-02-02 12:16:00,28.3,13.7,29.73,SSW,203,6.7,7.6,54,0.00,,,0.00,WUHU216HW,2013-02-02 17:16:00,
2013-02-02 12:18:00,28.8,13.8,29.73,South,180,6.0,7.6,53,0.00,,,0.00,WUHU216HW,2013-02-02 17:18:00,
2013-02-02 12:19:00,28.8,13.8,29.73,SE,135,7.6,7.6,53,0.00,,,0.00,WUHU216HW,2013-02-02 17:19:00,
2013-02-02 12:21:00,29.2,14.1,29.73,SE,135,6.7,7.6,53,0.00,,,0.00,WUHU216HW,2013-02-02 17:21:00,
2013-02-02 12:23:00,29.2,13.3,29.73,SSE,158,8.9,10.1,51,0.00,,,0.00,WUHU216HW,2013-02-02 17:23:00,
2013-02-02 12:24:00,29.2,13.3,29.73,SW,225,10.1,10.1,51,0.00,,,0.00,WUHU216HW,2013-02-02 17:24:00,
2013-02-02 12:26:00,29.2,13.7,29.73,SW,225,3.6,10.1,52,0.00,,,0.00,WUHU216HW,2013-02-02 17:26:00,
2013-02-02 12:28:00,29.2,13.7,29.73,SSW,203,3.6,10.1,52,0.00,,,0.00,WUHU216HW,2013-02-02 17:28:00,
2013-02-02 12:29:00,29.2,13.7,29.73,SW,225,4.9,10.1,52,0.00,,,0.00,WUHU216HW,2013-02-02 17:29:00,
2013-02-02 12:31:00,29.3,13.9,29.72,South,180,4.9,10.1,52,0.00,,,0.00,WUHU216HW,2013-02-02 17:31:00,
2013-02-02 12:33:00,29.3,13.9,29.72,SSE,158,5.8,10.1,52,0.00,,,0.00,WUHU216HW,2013-02-02 17:33:00,
2013-02-02 12:34:00,29.3,13.9,29.72,SE,135,3.4,7.4,52,0.00,,,0.00,WUHU216HW,2013-02-02 17:34:00,
2013-02-02 12:35:00,29.3,14.3,29.72,SSE,158,2.0,7.4,53,0.00,,,0.00,WUHU216HW,2013-02-02 17:35:00,
2013-02-02 12:37:00,29.2,14.1,29.72,East,90,2.7,7.4,53,0.00,,,0.00,WUHU216HW,2013-02-02 17:37:00,
2013-02-02 12:38:00,29.2,13.7,29.72,ESE,113,7.2,7.4,52,0.00,,,0.00,WUHU216HW,2013-02-02 17:38:00,
2013-02-02 12:40:00,29.2,13.7,29.72,SSW,203,5.4,7.4,52,0.00,,,0.00,WUHU216HW,2013-02-02 17:40:00,
2013-02-02 12:42:00,29.0,13.1,29.71,SSW,203,7.2,7.2,51,0.00,,,0.00,WUHU216HW,2013-02-02 17:42:00,
2013-02-02 12:44:00,28.8,13.4,29.71,SW,225,6.5,7.2,52,0.00,,,0.00,WUHU216HW,2013-02-02 17:44:00,
2013-02-02 12:45:00,28.6,12.8,29.71,SSW,203,6.0,7.4,51,0.00,,,0.00,WUHU216HW,2013-02-02 17:45:00,
2013-02-02 12:47:00,28.4,12.2,29.71,SSE,158,4.0,7.4,50,0.00,,,0.00,WUHU216HW,2013-02-02 17:47:00,
2013-02-02 12:49:00,28.3,12.5,29.71,SSE,158,6.9,7.4,51,0.00,,,0.00,WUHU216HW,2013-02-02 17:49:00,
2013-02-02 12:50:00,28.3,12.5,29.71,South,180,5.8,7.4,51,0.00,,,0.00,WUHU216HW,2013-02-02 17:50:00,
2013-02-02 12:52:00,28.3,12.5,29.71,SW,225,6.5,7.4,51,0.00,,,0.00,WUHU216HW,2013-02-02 17:52:00,
2013-02-02 12:54:00,28.4,12.7,29.71,SSE,158,3.4,6.9,51,0.00,,,0.00,WUHU216HW,2013-02-02 17:54:00,
2013-02-02 12:55:00,28.4,12.2,29.71,SSE,158,3.1,6.9,50,0.00,,,0.00,WUHU216HW,2013-02-02 17:55:00,
2013-02-02 12:57:00,28.6,13.2,29.71,SE,135,4.0,6.9,52,0.00,,,0.00,WUHU216HW,2013-02-02 17:57:00,
2013-02-02 12:59:00,28.8,13.4,29.71,South,180,6.0,6.9,52,0.00,,,0.00,WUHU216HW,2013-02-02 17:59:00,
2013-02-02 13:00:00,29.0,13.6,29.71,SSE,158,5.4,6.9,52,0.00,,,0.00,WUHU216HW,2013-02-02 18:00:00,
2013-02-02 13:01:00,29.2,13.7,29.71,SSE,158,2.9,6.9,52,0.00,,,0.00,WUHU216HW,2013-02-02 18:01:00,
2013-02-02 13:02:00,29.2,13.7,29.71,SSE,158,3.8,6.0,52,0.00,,,0.00,WUHU216HW,2013-02-02 18:02:00,
2013-02-02 13:05:00,29.3,13.9,29.71,SSE,158,3.6,6.0,52,0.00,,,0.00,WUHU216HW,2013-02-02 18:05:00,
2013-02-02 13:06:00,29.7,14.2,29.70,ESE,113,4.0,6.0,52,0.00,,,0.00,WUHU216HW,2013-02-02 18:06:00,
2013-02-02 13:07:00,29.9,14.4,29.71,SSE,158,4.0,6.0,52,0.00,,,0.00,WUHU216HW,2013-02-02 18:07:00,
2013-02-02 13:10:00,29.9,14.0,29.70,SSW,203,4.7,6.0,51,0.00,,,0.00,WUHU216HW,2013-02-02 18:10:00,
2013-02-02 13:11:00,29.9,14.0,29.70,South,180,4.3,6.0,51,0.00,,,0.00,WUHU216HW,2013-02-02 18:11:00,
2013-02-02 13:12:00,29.9,14.0,29.70,ESE,113,4.7,6.0,51,0.00,,,0.00,WUHU216HW,2013-02-02 18:12:00,
2013-02-02 13:15:00,29.9,14.0,29.69,SSW,203,4.0,6.0,51,0.00,,,0.00,WUHU216HW,2013-02-02 18:15:00,
2013-02-02 13:16:00,29.9,14.0,29.69,SSW,203,4.7,6.0,51,0.00,,,0.00,WUHU216HW,2013-02-02 18:16:00,
2013-02-02 13:17:00,30.1,14.5,29.69,SSE,158,3.4,6.0,52,0.00,,,0.00,WUHU216HW,2013-02-02 18:17:00,
2013-02-02 13:20:00,30.2,14.3,29.69,SSE,158,3.8,6.0,51,0.00,,,0.00,WUHU216HW,2013-02-02 18:20:00,
2013-02-02 13:21:00,30.2,14.3,29.69,SSE,158,4.3,6.0,51,0.00,,,0.00,WUHU216HW,2013-02-02 18:21:00,
2013-02-02 13:23:00,30.1,13.7,29.69,SW,225,5.4,5.4,50,0.00,,,0.00,WUHU216HW,2013-02-02 18:23:00,
2013-02-02 13:25:00,30.1,14.1,29.68,SSE,158,2.7,5.4,51,0.00,,,0.00,WUHU216HW,2013-02-02 18:25:00,
2013-02-02 13:26:00,30.1,14.1,29.69,SE,135,2.5,5.4,51,0.00,,,0.00,WUHU216HW,2013-02-02 18:26:00,
2013-02-02 13:28:00,30.1,13.7,29.69,SSE,158,2.2,5.4,50,0.00,,,0.00,WUHU216HW,2013-02-02 18:28:00,
2013-02-02 13:30:00,29.9,13.5,29.69,SE,135,2.9,5.4,50,0.00,,,0.00,WUHU216HW,2013-02-02 18:30:00,
2013-02-02 13:31:00,30.1,13.7,29.69,SSE,158,3.6,5.4,50,0.00,,,0.00,WUHU216HW,2013-02-02 18:31:00,
2013-02-02 13:33:00,30.1,14.1,29.68,SSE,158,2.0,3.6,51,0.00,,,0.00,WUHU216HW,2013-02-02 18:33:00,
2013-02-02 13:35:00,30.2,14.3,29.68,SE,135,3.1,3.6,51,0.00,,,0.00,WUHU216HW,2013-02-02 18:35:00,
2013-02-02 13:36:00,30.4,14.4,29.68,SSE,158,4.5,4.5,51,0.00,,,0.00,WUHU216HW,2013-02-02 18:36:00,
2013-02-02 13:38:00,30.4,14.4,29.68,SE,135,4.3,4.5,51,0.00,,,0.00,WUHU216HW,2013-02-02 18:38:00,
2013-02-02 13:40:00,30.4,14.1,29.68,SSW,203,6.3,6.3,50,0.00,,,0.00,WUHU216HW,2013-02-02 18:40:00,
2013-02-02 13:41:00,30.4,14.1,29.68,SSW,203,6.3,6.3,50,0.00,,,0.00,WUHU216HW,2013-02-02 18:41:00,
2013-02-02 13:42:00,30.4,14.1,29.68,SSE,158,4.3,6.7,50,0.00,,,0.00,WUHU216HW,2013-02-02 18:42:00,
2013-02-02 13:44:00,30.4,14.1,29.68,SSW,203,4.0,6.7,50,0.00,,,0.00,WUHU216HW,2013-02-02 18:44:00,
2013-02-02 13:45:00,30.2,13.3,29.68,ESE,113,3.1,6.7,49,0.00,,,0.00,WUHU216HW,2013-02-02 18:45:00,
2013-02-02 13:46:00,30.2,13.3,29.68,ESE,113,3.1,6.7,49,0.00,,,0.00,WUHU216HW,2013-02-02 18:46:00,
2013-02-02 13:47:00,30.2,13.3,29.68,South,180,6.3,6.7,49,0.00,,,0.00,WUHU216HW,2013-02-02 18:47:00,
2013-02-02 13:49:00,30.2,13.3,29.68,SSE,158,3.6,6.7,49,0.00,,,0.00,WUHU216HW,2013-02-02 18:49:00,
2013-02-02 13:51:00,30.1,13.2,29.68,SE,135,4.7,6.7,49,0.00,,,0.00,WUHU216HW,2013-02-02 18:51:00,
2013-02-02 13:52:00,29.9,13.1,29.68,SSW,203,2.9,6.3,49,0.00,,,0.00,WUHU216HW,2013-02-02 18:52:00,
2013-02-02 13:54:00,29.9,13.1,29.68,SSW,203,3.6,6.3,49,0.00,,,0.00,WUHU216HW,2013-02-02 18:54:00,
2013-02-02 13:56:00,29.9,13.1,29.68,SE,135,6.3,6.3,49,0.00,,,0.00,WUHU216HW,2013-02-02 18:56:00,
2013-02-02 13:57:00,29.9,13.1,29.68,ESE,113,4.0,6.3,49,0.00,,,0.00,WUHU216HW,2013-02-02 18:57:00,
2013-02-02 13:59:00,29.7,12.3,29.67,SSE,158,7.8,7.8,48,0.00,,,0.00,WUHU216HW,2013-02-02 18:59:00,
2013-02-02 14:01:00,29.3,12.1,29.68,South,180,3.4,7.8,48,0.00,,,0.00,WUHU216HW,2013-02-02 19:01:00,
2013-02-02 14:02:00,29.5,12.3,29.68,SSW,203,6.7,7.8,48,0.00,,,0.00,WUHU216HW,2013-02-02 19:02:00,
2013-02-02 14:04:00,29.5,12.7,29.68,SSW,203,6.5,7.8,49,0.00,,,0.00,WUHU216HW,2013-02-02 19:04:00,
2013-02-02 14:06:00,29.9,13.1,29.67,South,180,4.0,7.8,49,0.00,,,0.00,WUHU216HW,2013-02-02 19:06:00,
2013-02-02 14:07:00,29.9,13.1,29.67,SSE,158,4.0,7.8,49,0.00,,,0.00,WUHU216HW,2013-02-02 19:07:00,
2013-02-02 14:09:00,30.1,12.2,29.67,SE,135,7.6,7.6,47,0.00,,,0.00,WUHU216HW,2013-02-02 19:09:00,
2013-02-02 14:11:00,30.1,11.7,29.67,SE,135,6.3,7.6,46,0.00,,,0.00,WUHU216HW,2013-02-02 19:11:00,
2013-02-02 14:13:00,29.9,12.5,29.67,ESE,113,3.4,7.6,48,0.00,,,0.00,WUHU216HW,2013-02-02 19:13:00,
2013-02-02 14:15:00,29.9,12.5,29.67,SSW,203,3.1,7.6,48,0.00,,,0.00,WUHU216HW,2013-02-02 19:15:00,
2013-02-02 14:16:00,29.7,12.3,29.67,SE,135,4.0,8.5,48,0.00,,,0.00,WUHU216HW,2013-02-02 19:16:00,
2013-02-02 14:18:00,29.5,12.3,29.67,SSE,158,4.0,8.5,48,0.00,,,0.00,WUHU216HW,2013-02-02 19:18:00,
2013-02-02 14:20:00,29.3,12.1,29.67,SSE,158,6.9,8.5,48,0.00,,,0.00,WUHU216HW,2013-02-02 19:20:00,
2013-02-02 14:21:00,29.0,11.7,29.67,ESE,113,5.1,8.5,48,0.00,,,0.00,WUHU216HW,2013-02-02 19:21:00,
2013-02-02 14:22:00,28.6,11.4,29.67,SE,135,4.3,8.5,48,0.00,,,0.00,WUHU216HW,2013-02-02 19:22:00,
2013-02-02 14:23:00,28.4,11.3,29.67,SSE,158,4.9,8.5,48,0.00,,,0.00,WUHU216HW,2013-02-02 19:23:00,
2013-02-02 14:25:00,28.4,11.3,29.67,SE,135,7.2,8.5,48,0.00,,,0.00,WUHU216HW,2013-02-02 19:25:00,
2013-02-02 14:26:00,28.4,11.3,29.67,South,180,5.8,7.2,48,0.00,,,0.00,WUHU216HW,2013-02-02 19:26:00,
2013-02-02 14:27:00,28.3,11.1,29.67,SSE,158,5.4,7.2,48,0.00,,,0.00,WUHU216HW,2013-02-02 19:27:00,
2013-02-02 14:28:00,28.3,11.1,29.67,SSE,158,4.7,7.2,48,0.00,,,0.00,WUHU216HW,2013-02-02 19:28:00,
2013-02-02 14:30:00,28.4,11.3,29.67,South,180,5.4,7.2,48,0.00,,,0.00,WUHU216HW,2013-02-02 19:30:00,
2013-02-02 14:31:00,28.3,11.1,29.67,SE,135,5.4,7.2,48,0.00,,,0.00,WUHU216HW,2013-02-02 19:31:00,
2013-02-02 14:32:00,28.3,10.5,29.66,SSE,158,4.7,7.2,47,0.00,,,0.00,WUHU216HW,2013-02-02 19:32:00,
2013-02-02 14:33:00,28.3,10.5,29.67,SSE,158,4.5,7.2,47,0.00,,,0.00,WUHU216HW,2013-02-02 19:33:00,
2013-02-02 14:35:00,28.3,10.5,29.67,South,180,5.6,8.3,47,0.00,,,0.00,WUHU216HW,2013-02-02 19:35:00,
2013-02-02 14:37:00,28.1,10.4,29.67,SSW,203,6.0,8.3,47,0.00,,,0.00,WUHU216HW,2013-02-02 19:37:00,
2013-02-02 14:38:00,28.1,10.4,29.66,SE,135,5.8,8.3,47,0.00,,,0.00,WUHU216HW,2013-02-02 19:38:00,
2013-02-02 14:40:00,28.1,10.9,29.66,SE,135,8.1,8.3,48,0.00,,,0.00,WUHU216HW,2013-02-02 19:40:00,
2013-02-02 14:42:00,27.9,10.7,29.66,South,180,5.4,8.3,48,0.00,,,0.00,WUHU216HW,2013-02-02 19:42:00,
2013-02-02 14:43:00,27.9,10.7,29.66,South,180,5.4,8.3,48,0.00,,,0.00,WUHU216HW,2013-02-02 19:43:00,
2013-02-02 14:45:00,27.9,10.7,29.66,SSW,203,7.6,8.1,48,0.00,,,0.00,WUHU216HW,2013-02-02 19:45:00,
2013-02-02 14:47:00,27.9,10.7,29.66,SE,135,2.5,8.1,48,0.00,,,0.00,WUHU216HW,2013-02-02 19:47:00,
2013-02-02 14:48:00,27.9,10.7,29.66,SE,135,2.5,8.1,48,0.00,,,0.00,WUHU216HW,2013-02-02 19:48:00,
2013-02-02 14:50:00,27.7,10.0,29.66,SSE,158,8.5,8.5,47,0.00,,,0.00,WUHU216HW,2013-02-02 19:50:00,
2013-02-02 14:52:00,27.7,10.0,29.66,South,180,7.2,8.5,47,0.00,,,0.00,WUHU216HW,2013-02-02 19:52:00,
2013-02-02 14:53:00,27.5,9.8,29.66,SW,225,5.6,8.5,47,0.00,,,0.00,WUHU216HW,2013-02-02 19:53:00,
2013-02-02 14:54:00,27.5,9.8,29.66,SW,225,5.6,8.5,47,0.00,,,0.00,WUHU216HW,2013-02-02 19:54:00,
2013-02-02 14:55:00,27.5,9.8,29.66,South,180,6.7,8.5,47,0.00,,,0.00,WUHU216HW,2013-02-02 19:55:00,
2013-02-02 14:57:00,27.4,10.2,29.66,SSW,203,5.8,8.5,48,0.00,,,0.00,WUHU216HW,2013-02-02 19:57:00,
2013-02-02 14:58:00,27.2,10.0,29.66,SSE,158,6.9,8.5,48,0.00,,,0.00,WUHU216HW,2013-02-02 19:58:00,
2013-02-02 14:59:00,27.2,10.0,29.66,SSE,158,6.9,8.5,48,0.00,,,0.00,WUHU216HW,2013-02-02 19:59:00,
2013-02-02 15:00:00,27.2,10.0,29.66,South,180,10.5,10.5,48,0.00,,,0.00,WUHU216HW,2013-02-02 20:00:00,
2013-02-02 15:03:00,27.0,9.8,29.66,South,180,6.9,10.5,48,0.00,,,0.00,WUHU216HW,2013-02-02 20:03:00,
2013-02-02 15:04:00,27.0,9.8,29.66,South,180,6.9,10.5,48,0.00,,,0.00,WUHU216HW,2013-02-02 20:04:00,
2013-02-02 15:06:00,27.0,9.8,29.66,SSE,158,7.6,10.5,48,0.00,,,0.00,WUHU216HW,2013-02-02 20:06:00,
2013-02-02 15:08:00,27.0,9.8,29.66,South,180,7.8,10.5,48,0.00,,,0.00,WUHU216HW,2013-02-02 20:08:00,
2013-02-02 15:09:00,26.8,9.6,29.66,SE,135,3.1,10.5,48,0.00,,,0.00,WUHU216HW,2013-02-02 20:09:00,
2013-02-02 15:11:00,26.8,9.6,29.66,SSE,158,4.3,8.5,48,0.00,,,0.00,WUHU216HW,2013-02-02 20:11:00,
2013-02-02 15:13:00,26.6,9.5,29.66,SSE,158,4.9,8.5,48,0.00,,,0.00,WUHU216HW,2013-02-02 20:13:00,
2013-02-02 15:14:00,26.6,9.5,29.66,SSE,158,4.9,8.5,48,0.00,,,0.00,WUHU216HW,2013-02-02 20:14:00,
2013-02-02 15:16:00,26.6,9.5,29.66,SSE,158,2.7,8.5,48,0.00,,,0.00,WUHU216HW,2013-02-02 20:16:00,
2013-02-02 15:18:00,26.5,9.3,29.66,South,180,6.3,8.3,48,0.00,,,0.00,WUHU216HW,2013-02-02 20:18:00,
2013-02-02 15:19:00,26.5,9.3,29.66,SE,135,3.6,8.3,48,0.00,,,0.00,WUHU216HW,2013-02-02 20:19:00,
2013-02-02 15:21:00,26.5,9.3,29.66,South,180,4.5,8.3,48,0.00,,,0.00,WUHU216HW,2013-02-02 20:21:00,
2013-02-02 15:23:00,26.5,9.3,29.66,SSE,158,4.3,8.3,48,0.00,,,0.00,WUHU216HW,2013-02-02 20:23:00,
2013-02-02 15:24:00,26.5,9.3,29.66,SSW,203,4.0,8.3,48,0.00,,,0.00,WUHU216HW,2013-02-02 20:24:00,
2013-02-02 15:26:00,26.5,9.3,29.66,SSE,158,8.5,8.5,48,0.00,,,0.00,WUHU216HW,2013-02-02 20:26:00,
2013-02-02 15:28:00,26.6,9.5,29.66,SE,135,3.6,8.5,48,0.00,,,0.00,WUHU216HW,2013-02-02 20:28:00,
2013-02-02 15:29:00,26.6,9.5,29.66,SE,135,5.6,8.5,48,0.00,,,0.00,WUHU216HW,2013-02-02 20:29:00,
2013-02-02 15:32:00,26.6,9.5,29.65,SSE,158,2.5,8.5,48,0.00,,,0.00,WUHU216HW,2013-02-02 20:32:00,
2013-02-02 15:33:00,26.6,10.0,29.66,SW,225,5.4,8.5,49,0.00,,,0.00,WUHU216HW,2013-02-02 20:33:00,
2013-02-02 15:34:00,26.6,10.0,29.66,SSW,203,1.3,8.5,49,0.00,,,0.00,WUHU216HW,2013-02-02 20:34:00,
2013-02-02 15:37:00,26.6,10.0,29.65,SSW,203,2.9,8.5,49,0.00,,,0.00,WUHU216HW,2013-02-02 20:37:00,
2013-02-02 15:38:00,26.8,10.2,29.65,South,180,3.4,5.6,49,0.00,,,0.00,WUHU216HW,2013-02-02 20:38:00,
2013-02-02 15:39:00,26.8,10.2,29.65,South,180,4.0,5.4,49,0.00,,,0.00,WUHU216HW,2013-02-02 20:39:00,
2013-02-02 15:40:00,26.8,10.2,29.65,South,180,4.0,5.4,49,0.00,,,0.00,WUHU216HW,2013-02-02 20:40:00,
2013-02-02 15:42:00,26.8,10.2,29.65,South,180,5.1,5.4,49,0.00,,,0.00,WUHU216HW,2013-02-02 20:42:00,
2013-02-02 15:44:00,27.0,10.4,29.65,South,180,5.6,5.6,49,0.00,,,0.00,WUHU216HW,2013-02-02 20:44:00,
2013-02-02 15:45:00,27.0,10.4,29.65,SSW,203,4.5,5.6,49,0.00,,,0.00,WUHU216HW,2013-02-02 20:45:00,
2013-02-02 15:47:00,27.0,10.4,29.65,SW,225,2.0,5.6,49,0.00,,,0.00,WUHU216HW,2013-02-02 20:47:00,
2013-02-02 15:49:00,26.8,10.2,29.65,South,180,4.9,6.3,49,0.00,,,0.00,WUHU216HW,2013-02-02 20:49:00,
2013-02-02 15:50:00,26.8,10.2,29.65,South,180,4.9,6.3,49,0.00,,,0.00,WUHU216HW,2013-02-02 20:50:00,
2013-02-02 15:52:00,26.8,9.6,29.65,SSW,203,7.8,7.8,48,0.00,,,0.00,WUHU216HW,2013-02-02 20:52:00,
2013-02-02 15:55:00,26.8,9.6,29.65,WSW,248,5.4,7.8,48,0.00,,,0.00,WUHU216HW,2013-02-02 20:55:00,
2013-02-02 15:57:00,26.6,9.5,29.65,SSW,203,6.9,7.8,48,0.00,,,0.00,WUHU216HW,2013-02-02 20:57:00,
2013-02-02 16:00:00,26.8,9.6,29.65,SSW,203,4.3,7.8,48,0.00,,,0.00,WUHU216HW,2013-02-02 21:00:00,
2013-02-02 16:02:00,26.6,9.5,29.65,SW,225,6.3,7.4,48,0.00,,,0.00,WUHU216HW,2013-02-02 21:02:00,
2013-02-02 16:05:00,26.5,9.3,29.65,South,180,6.5,8.3,48,0.00,,,0.00,WUHU216HW,2013-02-02 21:05:00,
2013-02-02 16:07:00,26.5,9.3,29.65,South,180,9.2,9.2,48,0.00,,,0.00,WUHU216HW,2013-02-02 21:07:00,
2013-02-02 16:10:00,26.5,9.3,29.65,South,180,7.4,9.2,48,0.00,,,0.00,WUHU216HW,2013-02-02 21:10:00,
2013-02-02 16:11:00,26.5,9.3,29.65,SE,135,6.0,9.2,48,0.00,,,0.00,WUHU216HW,2013-02-02 21:11:00,
2013-02-02 16:12:00,26.5,9.3,29.65,SSW,203,4.0,9.2,48,0.00,,,0.00,WUHU216HW,2013-02-02 21:12:00,
2013-02-02 16:15:00,26.5,9.8,29.65,SSE,158,2.7,9.2,49,0.00,,,0.00,WUHU216HW,2013-02-02 21:15:00,
2013-02-02 16:16:00,26.3,9.6,29.65,SSW,203,5.4,9.2,49,0.00,,,0.00,WUHU216HW,2013-02-02 21:16:00,
2013-02-02 16:17:00,26.3,9.6,29.65,SSW,203,4.5,7.4,49,0.00,,,0.00,WUHU216HW,2013-02-02 21:17:00,
2013-02-02 16:20:00,26.3,9.6,29.65,SSW,203,5.8,6.0,49,0.00,,,0.00,WUHU216HW,2013-02-02 21:20:00,
2013-02-02 16:21:00,26.3,9.6,29.65,SW,225,6.3,6.3,49,0.00,,,0.00,WUHU216HW,2013-02-02 21:21:00,
2013-02-02 16:22:00,26.3,9.6,29.65,SW,225,2.7,6.3,49,0.00,,,0.00,WUHU216HW,2013-02-02 21:22:00,
2013-02-02 16:25:00,26.3,9.6,29.65,SSW,203,4.7,6.3,49,0.00,,,0.00,WUHU216HW,2013-02-02 21:25:00,
2013-02-02 16:26:00,26.3,9.6,29.65,South,180,3.6,6.3,49,0.00,,,0.00,WUHU216HW,2013-02-02 21:26:00,
2013-02-02 16:27:00,26.3,9.6,29.65,SW,225,4.7,6.3,49,0.00,,,0.00,WUHU216HW,2013-02-02 21:27:00,
2013-02-02 16:30:00,26.3,9.6,29.65,SSW,203,4.3,6.3,49,0.00,,,0.00,WUHU216HW,2013-02-02 21:30:00,
2013-02-02 16:31:00,26.3,9.6,29.65,SSW,203,4.3,4.7,49,0.00,,,0.00,WUHU216HW,2013-02-02 21:31:00,
2013-02-02 16:32:00,26.1,10.0,29.65,SW,225,3.4,4.7,50,0.00,,,0.00,WUHU216HW,2013-02-02 21:32:00,
2013-02-02 16:33:00,26.3,10.1,29.65,SW,225,3.4,4.7,50,0.00,,,0.00,WUHU216HW,2013-02-02 21:33:00,
2013-02-02 16:35:00,26.1,9.5,29.65,SW,225,2.7,4.9,49,0.00,,,0.00,WUHU216HW,2013-02-02 21:35:00,
2013-02-02 16:36:00,26.3,9.6,29.66,SSW,203,3.6,4.9,49,0.00,,,0.00,WUHU216HW,2013-02-02 21:36:00,
2013-02-02 16:37:00,26.3,9.6,29.66,SSW,203,3.6,4.9,49,0.00,,,0.00,WUHU216HW,2013-02-02 21:37:00,
2013-02-02 16:38:00,26.1,9.5,29.65,SW,225,6.3,6.3,49,0.00,,,0.00,WUHU216HW,2013-02-02 21:38:00,
2013-02-02 16:40:00,26.1,9.5,29.65,SW,225,6.0,6.3,49,0.00,,,0.00,WUHU216HW,2013-02-02 21:40:00,
2013-02-02 16:41:00,26.1,9.5,29.65,WSW,248,3.4,6.3,49,0.00,,,0.00,WUHU216HW,2013-02-02 21:41:00,
2013-02-02 16:42:00,25.9,9.3,29.66,WSW,248,2.7,6.3,49,0.00,,,0.00,WUHU216HW,2013-02-02 21:42:00,
2013-02-02 16:43:00,25.9,9.3,29.66,WSW,248,2.7,6.3,49,0.00,,,0.00,WUHU216HW,2013-02-02 21:43:00,
2013-02-02 16:46:00,25.9,9.3,29.66,South,180,4.7,6.3,49,0.00,,,0.00,WUHU216HW,2013-02-02 21:46:00,
2013-02-02 16:47:00,25.9,9.3,29.66,SW,225,1.8,6.0,49,0.00,,,0.00,WUHU216HW,2013-02-02 21:47:00,
2013-02-02 16:48:00,25.9,9.3,29.66,SW,225,1.8,6.0,49,0.00,,,0.00,WUHU216HW,2013-02-02 21:48:00,
2013-02-02 16:51:00,25.7,9.2,29.65,WSW,248,5.8,5.8,49,0.00,,,0.00,WUHU216HW,2013-02-02 21:51:00,
2013-02-02 16:52:00,25.7,9.2,29.65,SW,225,2.5,5.8,49,0.00,,,0.00,WUHU216HW,2013-02-02 21:52:00,
2013-02-02 16:53:00,25.7,9.2,29.65,SW,225,1.8,5.8,49,0.00,,,0.00,WUHU216HW,2013-02-02 21:53:00,
2013-02-02 16:56:00,25.6,9.5,29.65,SW,225,0.4,5.8,50,0.00,,,0.00,WUHU216HW,2013-02-02 21:56:00,
2013-02-02 16:58:00,25.6,9.5,29.65,WSW,248,1.1,5.8,50,0.00,,,0.00,WUHU216HW,2013-02-02 21:58:00,
2013-02-02 17:01:00,25.6,9.5,29.65,SW,225,1.6,4.0,50,0.00,,,0.00,WUHU216HW,2013-02-02 22:01:00,
2013-02-02 17:02:00,25.6,9.5,29.65,WSW,248,3.6,4.0,50,0.00,,,0.00,WUHU216HW,2013-02-02 22:02:00,
2013-02-02 17:03:00,25.4,9.3,29.65,WSW,248,1.1,4.0,50,0.00,,,0.00,WUHU216HW,2013-02-02 22:03:00,
2013-02-02 17:06:00,25.4,9.3,29.65,NW,315,0.9,4.0,50,0.00,,,0.00,WUHU216HW,2013-02-02 22:06:00,
2013-02-02 17:07:00,25.4,9.3,29.65,WNW,293,1.1,4.0,50,0.00,,,0.00,WUHU216HW,2013-02-02 22:07:00,
2013-02-02 17:08:00,25.2,9.2,29.65,WNW,293,0.9,4.0,50,0.00,,,0.00,WUHU216HW,2013-02-02 22:08:00,
2013-02-02 17:11:00,25.0,9.0,29.65,NW,315,0.2,3.6,50,0.00,,,0.00,WUHU216HW,2013-02-02 22:11:00,
2013-02-02 17:12:00,25.0,9.0,29.64,SSE,158,0.7,1.1,50,0.00,,,0.00,WUHU216HW,2013-02-02 22:12:00,
2013-02-02 17:13:00,24.8,8.8,29.65,NNE,23,0.0,1.1,50,0.00,,,0.00,WUHU216HW,2013-02-02 22:13:00,
2013-02-02 17:17:00,24.8,9.3,29.65,South,180,0.0,0.9,51,0.00,,,0.00,WUHU216HW,2013-02-02 22:17:00,
2013-02-02 17:18:00,24.8,9.3,29.65,WSW,248,1.1,1.1,51,0.00,,,0.00,WUHU216HW,2013-02-02 22:18:00,
2013-02-02 17:22:00,24.5,8.5,29.65,West,270,2.5,4.9,50,0.00,,,0.00,WUHU216HW,2013-02-02 22:22:00,
2013-02-02 17:23:00,24.5,8.5,29.65,WNW,293,3.6,4.9,50,0.00,,,0.00,WUHU216HW,2013-02-02 22:23:00,
2013-02-02 17:24:00,24.5,8.5,29.65,WNW,293,3.6,4.9,50,0.00,,,0.00,WUHU216HW,2013-02-02 22:24:00,
2013-02-02 17:27:00,24.3,8.7,29.65,NW,315,0.4,4.9,51,0.00,,,0.00,WUHU216HW,2013-02-02 22:27:00,
2013-02-02 17:28:00,24.3,9.2,29.65,NW,315,0.4,4.9,52,0.00,,,0.00,WUHU216HW,2013-02-02 22:28:00,
2013-02-02 17:29:00,24.3,9.2,29.65,NW,315,0.4,4.9,52,0.00,,,0.00,WUHU216HW,2013-02-02 22:29:00,
2013-02-02 17:32:00,24.1,8.6,29.65,WNW,293,1.1,3.6,51,0.00,,,0.00,WUHU216HW,2013-02-02 22:32:00,
2013-02-02 17:33:00,24.1,8.6,29.65,SW,225,1.6,3.1,51,0.00,,,0.00,WUHU216HW,2013-02-02 22:33:00,
2013-02-02 17:34:00,24.1,8.6,29.65,SW,225,1.6,3.1,51,0.00,,,0.00,WUHU216HW,2013-02-02 22:34:00,
2013-02-02 17:37:00,24.1,8.6,29.65,WNW,293,1.1,3.1,51,0.00,,,0.00,WUHU216HW,2013-02-02 22:37:00,
2013-02-02 17:38:00,24.1,8.6,29.66,WSW,248,1.8,3.1,51,0.00,,,0.00,WUHU216HW,2013-02-02 22:38:00,
2013-02-02 17:39:00,24.1,8.6,29.66,WSW,248,1.8,3.1,51,0.00,,,0.00,WUHU216HW,2013-02-02 22:39:00,
2013-02-02 17:42:00,24.1,8.6,29.66,SW,225,2.0,4.9,51,0.00,,,0.00,WUHU216HW,2013-02-02 22:42:00,
2013-02-02 17:43:00,23.9,8.4,29.66,West,270,2.5,4.9,51,0.00,,,0.00,WUHU216HW,2013-02-02 22:43:00,
2013-02-02 17:44:00,23.9,8.8,29.66,SW,225,1.1,4.9,52,0.00,,,0.00,WUHU216HW,2013-02-02 22:44:00,
2013-02-02 17:48:00,23.9,8.8,29.66,NW,315,0.0,4.9,52,0.00,,,0.00,WUHU216HW,2013-02-02 22:48:00,
2013-02-02 17:49:00,23.8,8.6,29.66,North,0,0.4,4.9,52,0.00,,,0.00,WUHU216HW,2013-02-02 22:49:00,
2013-02-02 17:53:00,23.8,8.6,29.66,West,270,1.8,2.5,52,0.00,,,0.00,WUHU216HW,2013-02-02 22:53:00,
2013-02-02 17:54:00,23.8,8.3,29.66,SW,225,2.5,4.5,51,0.00,,,0.00,WUHU216HW,2013-02-02 22:54:00,
2013-02-02 17:58:00,23.6,8.5,29.66,NNW,338,0.4,4.5,52,0.00,,,0.00,WUHU216HW,2013-02-02 22:58:00,
2013-02-02 17:59:00,23.6,8.5,29.66,North,0,5.1,5.1,52,0.00,,,0.00,WUHU216HW,2013-02-02 22:59:00,
2013-02-02 18:00:00,23.6,8.5,29.66,North,0,5.1,5.1,52,0.00,,,0.00,WUHU216HW,2013-02-02 23:00:00,
2013-02-02 18:03:00,23.6,10.5,29.66,NNE,23,1.8,6.3,57,0.00,,,0.00,WUHU216HW,2013-02-02 23:03:00,
2013-02-02 18:04:00,23.4,10.4,29.66,North,0,0.9,6.3,57,0.00,,,0.00,WUHU216HW,2013-02-02 23:04:00,
2013-02-02 18:05:00,23.4,10.4,29.66,North,0,0.9,6.3,57,0.00,,,0.00,WUHU216HW,2013-02-02 23:05:00,
2013-02-02 18:08:00,23.4,11.2,29.66,North,0,3.1,6.3,59,0.00,,,0.00,WUHU216HW,2013-02-02 23:08:00,
2013-02-02 18:09:00,23.4,11.2,29.66,North,0,4.0,6.3,59,0.00,,,0.00,WUHU216HW,2013-02-02 23:09:00,
2013-02-02 18:10:00,23.4,11.2,29.66,North,0,4.0,5.1,59,0.00,,,0.00,WUHU216HW,2013-02-02 23:10:00,
2013-02-02 18:13:00,23.2,11.0,29.66,NNE,23,2.5,4.0,59,0.00,,,0.00,WUHU216HW,2013-02-02 23:13:00,
2013-02-02 18:14:00,23.2,11.3,29.66,NNE,23,2.5,4.0,60,0.00,,,0.00,WUHU216HW,2013-02-02 23:14:00,
2013-02-02 18:15:00,23.2,11.3,29.66,NNW,338,0.9,4.0,60,0.00,,,0.00,WUHU216HW,2013-02-02 23:15:00,
2013-02-02 18:18:00,23.0,11.2,29.66,NNW,338,0.9,4.0,60,0.00,,,0.00,WUHU216HW,2013-02-02 23:18:00,
2013-02-02 18:19:00,23.0,10.8,29.66,NNE,23,1.6,3.8,59,0.00,,,0.00,WUHU216HW,2013-02-02 23:19:00,
2013-02-02 18:20:00,23.0,10.8,29.66,NNE,23,1.6,3.8,59,0.00,,,0.00,WUHU216HW,2013-02-02 23:20:00,
2013-02-02 18:23:00,23.0,11.5,29.66,NNW,338,0.9,2.5,61,0.00,,,0.00,WUHU216HW,2013-02-02 23:23:00,
2013-02-02 18:24:00,23.0,11.2,29.66,NW,315,1.3,1.8,60,0.00,,,0.00,WUHU216HW,2013-02-02 23:24:00,
2013-02-02 18:25:00,23.0,11.2,29.66,NW,315,1.3,1.8,60,0.00,,,0.00,WUHU216HW,2013-02-02 23:25:00,
2013-02-02 18:26:00,22.9,11.0,29.66,NNW,338,0.7,1.8,60,0.00,,,0.00,WUHU216HW,2013-02-02 23:26:00,
2013-02-02 18:29:00,22.9,11.0,29.66,NNE,23,1.6,1.8,60,0.00,,,0.00,WUHU216HW,2013-02-02 23:29:00,
2013-02-02 18:30:00,22.9,11.3,29.66,North,0,2.5,2.5,61,0.00,,,0.00,WUHU216HW,2013-02-02 23:30:00,
2013-02-02 18:31:00,22.9,11.3,29.66,NNW,338,1.3,2.5,61,0.00,,,0.00,WUHU216HW,2013-02-02 23:31:00,
2013-02-02 18:34:00,22.7,11.5,29.66,NNE,23,4.5,4.5,62,0.00,,,0.00,WUHU216HW,2013-02-02 23:34:00,
2013-02-02 18:35:00,22.7,11.5,29.66,North,0,1.8,4.5,62,0.00,,,0.00,WUHU216HW,2013-02-02 23:35:00,
2013-02-02 18:36:00,22.7,11.5,29.66,North,0,1.8,4.5,62,0.00,,,0.00,WUHU216HW,2013-02-02 23:36:00,
2013-02-02 18:39:00,22.7,11.2,29.66,NNW,338,1.1,4.5,61,0.00,,,0.00,WUHU216HW,2013-02-02 23:39:00,
2013-02-02 18:40:00,22.7,11.5,29.66,NE,45,2.0,4.5,62,0.00,,,0.00,WUHU216HW,2013-02-02 23:40:00,
2013-02-02 18:41:00,22.7,11.9,29.66,NNE,23,1.8,4.5,63,0.00,,,0.00,WUHU216HW,2013-02-02 23:41:00,
2013-02-02 18:44:00,22.7,11.9,29.66,North,0,0.4,2.5,63,0.00,,,0.00,WUHU216HW,2013-02-02 23:44:00,
2013-02-02 18:45:00,22.7,11.9,29.66,North,0,1.1,2.5,63,0.00,,,0.00,WUHU216HW,2013-02-02 23:45:00,
2013-02-02 18:46:00,22.7,11.9,29.66,NNE,23,2.5,2.5,63,0.00,,,0.00,WUHU216HW,2013-02-02 23:46:00,
2013-02-02 18:49:00,22.5,12.4,29.66,NNE,23,1.8,5.4,65,0.00,,,0.00,WUHU216HW,2013-02-02 23:49:00,
2013-02-02 18:50:00,22.5,12.4,29.66,North,0,3.4,5.4,65,0.00,,,0.00,WUHU216HW,2013-02-02 23:50:00,
2013-02-02 18:52:00,22.5,12.4,29.66,NNE,23,5.4,5.4,65,0.00,,,0.00,WUHU216HW,2013-02-02 23:52:00,
2013-02-02 18:54:00,22.3,12.6,29.66,North,0,2.9,5.4,66,0.00,,,0.00,WUHU216HW,2013-02-02 23:54:00,
2013-02-02 18:55:00,22.3,12.6,29.66,ENE,68,0.4,5.4,66,0.00,,,0.00,WUHU216HW,2013-02-02 23:55:00,
2013-02-02 18:57:00,22.3,12.2,29.66,North,0,1.1,5.4,65,0.00,,,0.00,WUHU216HW,2013-02-02 23:57:00,
2013-02-02 18:59:00,22.1,12.4,29.66,NNE,23,0.7,5.4,66,0.00,,,0.00,WUHU216HW,2013-02-02 23:59:00,
2013-02-02 19:00:00,22.1,12.4,29.66,NNE,23,1.3,5.4,66,0.00,,,0.00,WUHU216HW,2013-02-03 00:00:00,
2013-02-02 19:02:00,22.0,13.0,29.67,NNE,23,3.4,3.4,68,0.00,,,0.00,WUHU216HW,2013-02-03 00:02:00,
2013-02-02 19:05:00,22.0,13.3,29.67,NNE,23,4.7,4.7,69,0.00,,,0.00,WUHU216HW,2013-02-03 00:05:00,
2013-02-02 19:06:00,22.0,12.6,29.67,North,0,1.3,4.7,67,0.00,,,0.00,WUHU216HW,2013-02-03 00:06:00,
2013-02-02 19:07:00,22.0,13.0,29.67,NNW,338,2.2,4.7,68,0.00,,,0.00,WUHU216HW,2013-02-03 00:07:00,
2013-02-02 19:10:00,21.8,12.4,29.67,NNE,23,1.6,4.7,67,0.00,,,0.00,WUHU216HW,2013-02-03 00:10:00,
2013-02-02 19:11:00,21.8,12.8,29.67,North,0,2.5,4.7,68,0.00,,,0.00,WUHU216HW,2013-02-03 00:11:00,
2013-02-02 19:12:00,21.8,12.8,29.67,North,0,2.5,4.7,68,0.00,,,0.00,WUHU216HW,2013-02-03 00:12:00,
2013-02-02 19:15:00,21.6,13.0,29.67,NNE,23,5.4,5.4,69,0.00,,,0.00,WUHU216HW,2013-02-03 00:15:00,
2013-02-02 19:16:00,21.6,13.0,29.67,NNE,23,5.4,5.4,69,0.00,,,0.00,WUHU216HW,2013-02-03 00:16:00,
2013-02-02 19:17:00,21.6,13.0,29.67,North,0,2.5,5.4,69,0.00,,,0.00,WUHU216HW,2013-02-03 00:17:00,
2013-02-02 19:20:00,21.6,13.0,29.67,North,0,2.9,5.4,69,0.00,,,0.00,WUHU216HW,2013-02-03 00:20:00,
2013-02-02 19:21:00,21.6,13.0,29.67,North,0,2.9,5.4,69,0.00,,,0.00,WUHU216HW,2013-02-03 00:21:00,
2013-02-02 19:22:00,21.4,12.8,29.67,NE,45,2.2,5.4,69,0.00,,,0.00,WUHU216HW,2013-02-03 00:22:00,
2013-02-02 19:25:00,21.4,12.8,29.67,NNE,23,2.5,2.9,69,0.00,,,0.00,WUHU216HW,2013-02-03 00:25:00,
2013-02-02 19:26:00,21.4,12.8,29.67,North,0,0.9,2.9,69,0.00,,,0.00,WUHU216HW,2013-02-03 00:26:00,
2013-02-02 19:27:00,21.4,13.1,29.67,NNE,23,3.4,3.4,70,0.00,,,0.00,WUHU216HW,2013-02-03 00:27:00,
2013-02-02 19:30:00,21.2,13.0,29.67,NE,45,3.4,4.0,70,0.00,,,0.00,WUHU216HW,2013-02-03 00:30:00,
2013-02-02 19:31:00,21.2,13.0,29.67,North,0,4.7,4.7,70,0.00,,,0.00,WUHU216HW,2013-02-03 00:31:00,
2013-02-02 19:32:00,21.2,13.0,29.67,NNE,23,0.7,4.7,70,0.00,,,0.00,WUHU216HW,2013-02-03 00:32:00,
2013-02-02 19:35:00,21.2,13.0,29.67,NE,45,3.4,4.7,70,0.00,,,0.00,WUHU216HW,2013-02-03 00:35:00,
2013-02-02 19:36:00,21.2,13.2,29.67,NNE,23,2.9,4.7,71,0.00,,,0.00,WUHU216HW,2013-02-03 00:36:00,
2013-02-02 19:37:00,21.2,13.0,29.67,East,90,1.8,4.7,70,0.00,,,0.00,WUHU216HW,2013-02-03 00:37:00,
2013-02-02 19:40:00,21.2,13.2,29.67,NE,45,2.5,4.7,71,0.00,,,0.00,WUHU216HW,2013-02-03 00:40:00,
2013-02-02 19:41:00,21.1,13.1,29.68,North,0,1.1,3.4,71,0.00,,,0.00,WUHU216HW,2013-02-03 00:41:00,
2013-02-02 19:42:00,21.2,13.0,29.67,North,0,2.2,3.4,70,0.00,,,0.00,WUHU216HW,2013-02-03 00:42:00,
2013-02-02 19:45:00,21.1,13.1,29.67,North,0,1.8,2.9,71,0.00,,,0.00,WUHU216HW,2013-02-03 00:45:00,
2013-02-02 19:46:00,21.1,13.1,29.67,North,0,2.5,2.7,71,0.00,,,0.00,WUHU216HW,2013-02-03 00:46:00,
2013-02-02 19:47:00,21.1,13.1,29.67,North,0,2.5,2.7,71,0.00,,,0.00,WUHU216HW,2013-02-03 00:47:00,
2013-02-02 19:50:00,20.9,12.9,29.68,NE,45,4.0,4.0,71,0.00,,,0.00,WUHU216HW,2013-02-03 00:50:00,
2013-02-02 19:51:00,20.9,12.9,29.68,North,0,1.6,4.0,71,0.00,,,0.00,WUHU216HW,2013-02-03 00:51:00,
2013-02-02 19:52:00,20.9,12.9,29.68,North,0,1.8,4.0,71,0.00,,,0.00,WUHU216HW,2013-02-03 00:52:00,
2013-02-02 19:53:00,20.9,12.9,29.68,North,0,1.8,4.0,71,0.00,,,0.00,WUHU216HW,2013-02-03 00:53:00,
2013-02-02 19:55:00,20.9,12.6,29.67,North,0,0.9,4.0,70,0.00,,,0.00,WUHU216HW,2013-02-03 00:55:00,
2013-02-02 19:56:00,20.9,12.6,29.67,North,0,0.0,4.0,70,0.00,,,0.00,WUHU216HW,2013-02-03 00:56:00,
2013-02-02 19:58:00,20.7,12.4,29.68,North,0,0.2,4.0,70,0.00,,,0.00,WUHU216HW,2013-02-03 00:58:00,
2013-02-02 20:01:00,20.7,12.4,29.68,North,0,2.5,2.5,70,0.00,,,0.00,WUHU216HW,2013-02-03 01:01:00,
2013-02-02 20:03:00,20.7,12.4,29.68,NNW,338,1.6,2.5,70,0.00,,,0.00,WUHU216HW,2013-02-03 01:03:00,
2013-02-02 20:06:00,20.7,12.7,29.67,North,0,2.5,2.5,71,0.00,,,0.00,WUHU216HW,2013-02-03 01:06:00,
2013-02-02 20:09:00,20.5,12.5,29.68,North,0,1.8,2.5,71,0.00,,,0.00,WUHU216HW,2013-02-03 01:09:00,
2013-02-02 20:11:00,20.5,12.9,29.68,NW,315,0.9,2.9,72,0.00,,,0.00,WUHU216HW,2013-02-03 01:11:00,
2013-02-02 20:14:00,20.5,12.5,29.68,North,0,1.3,2.9,71,0.00,,,0.00,WUHU216HW,2013-02-03 01:14:00,
2013-02-02 20:16:00,20.5,12.5,29.68,North,0,1.6,2.9,71,0.00,,,0.00,WUHU216HW,2013-02-03 01:16:00,
2013-02-02 20:17:00,20.5,12.5,29.68,North,0,1.6,2.9,71,0.00,,,0.00,WUHU216HW,2013-02-03 01:17:00,
2013-02-02 20:19:00,20.5,12.2,29.68,North,0,0.4,2.9,70,0.00,,,0.00,WUHU216HW,2013-02-03 01:19:00,
2013-02-02 20:21:00,20.5,12.2,29.68,North,0,1.3,1.6,70,0.00,,,0.00,WUHU216HW,2013-02-03 01:21:00,
2013-02-02 20:22:00,20.5,12.2,29.68,North,0,1.3,1.6,70,0.00,,,0.00,WUHU216HW,2013-02-03 01:22:00,
2013-02-02 20:24:00,20.5,12.5,29.68,NNE,23,2.7,2.7,71,0.00,,,0.00,WUHU216HW,2013-02-03 01:24:00,
2013-02-02 20:26:00,20.3,12.7,29.68,NNE,23,1.1,2.7,72,0.00,,,0.00,WUHU216HW,2013-02-03 01:26:00,
2013-02-02 20:27:00,20.3,12.7,29.68,NNE,23,1.1,2.7,72,0.00,,,0.00,WUHU216HW,2013-02-03 01:27:00,
2013-02-02 20:29:00,20.3,12.7,29.68,NE,45,1.8,2.7,72,0.00,,,0.00,WUHU216HW,2013-02-03 01:29:00,
2013-02-02 20:31:00,20.3,12.7,29.68,NNE,23,1.6,2.7,72,0.00,,,0.00,WUHU216HW,2013-02-03 01:31:00,
2013-02-02 20:32:00,20.2,12.5,29.68,North,0,1.3,2.7,72,0.00,,,0.00,WUHU216HW,2013-02-03 01:32:00,
2013-02-02 20:34:00,20.2,12.8,29.68,NNE,23,2.0,2.2,73,0.00,,,0.00,WUHU216HW,2013-02-03 01:34:00,
2013-02-02 20:36:00,20.2,12.8,29.68,NNE,23,2.7,3.4,73,0.00,,,0.00,WUHU216HW,2013-02-03 01:36:00,
2013-02-02 20:37:00,20.2,12.8,29.68,NNE,23,0.7,3.4,73,0.00,,,0.00,WUHU216HW,2013-02-03 01:37:00,
2013-02-02 20:39:00,20.2,12.5,29.68,North,0,1.6,3.4,72,0.00,,,0.00,WUHU216HW,2013-02-03 01:39:00,
2013-02-02 20:41:00,20.2,12.5,29.68,NNE,23,0.7,3.4,72,0.00,,,0.00,WUHU216HW,2013-02-03 01:41:00,
2013-02-02 20:42:00,20.0,12.3,29.68,North,0,0.2,3.4,72,0.00,,,0.00,WUHU216HW,2013-02-03 01:42:00,
2013-02-02 20:44:00,20.0,12.3,29.69,NNW,338,0.0,3.4,72,0.00,,,0.00,WUHU216HW,2013-02-03 01:44:00,
2013-02-02 20:46:00,20.0,12.3,29.69,NNW,338,0.4,1.6,72,0.00,,,0.00,WUHU216HW,2013-02-03 01:46:00,
2013-02-02 20:47:00,19.8,12.2,29.69,North,0,0.7,1.6,72,0.00,,,0.00,WUHU216HW,2013-02-03 01:47:00,
2013-02-02 20:49:00,19.8,12.2,29.69,North,0,0.2,1.1,72,0.00,,,0.00,WUHU216HW,2013-02-03 01:49:00,
2013-02-02 20:51:00,19.8,11.8,29.68,NNE,23,0.0,0.7,71,0.00,,,0.00,WUHU216HW,2013-02-03 01:51:00,
2013-02-02 20:52:00,19.8,11.8,29.69,NNE,23,0.2,0.7,71,0.00,,,0.00,WUHU216HW,2013-02-03 01:52:00,
2013-02-02 20:54:00,19.8,12.2,29.69,NNE,23,0.0,0.7,72,0.00,,,0.00,WUHU216HW,2013-02-03 01:54:00,
2013-02-02 20:55:00,19.8,12.2,29.69,NNE,23,0.0,0.7,72,0.00,,,0.00,WUHU216HW,2013-02-03 01:55:00,
2013-02-02 20:57:00,19.8,11.8,29.69,ESE,113,0.0,0.7,71,0.00,,,0.00,WUHU216HW,2013-02-03 01:57:00,
2013-02-02 20:59:00,19.8,11.8,29.69,ESE,113,0.0,0.4,71,0.00,,,0.00,WUHU216HW,2013-02-03 01:59:00,
2013-02-02 21:00:00,19.8,11.8,29.69,ESE,113,0.0,0.4,71,0.00,,,0.00,WUHU216HW,2013-02-03 02:00:00,
2013-02-02 21:02:00,19.6,11.6,29.69,ESE,113,0.0,0.4,71,0.00,,,0.00,WUHU216HW,2013-02-03 02:02:00,
2013-02-02 21:03:00,19.6,11.6,29.68,ESE,113,0.0,0.4,71,0.00,,,0.00,WUHU216HW,2013-02-03 02:03:00,
2013-02-02 21:05:00,19.6,11.6,29.68,ESE,113,0.0,0.0,71,0.00,,,0.00,WUHU216HW,2013-02-03 02:05:00,
2013-02-02 21:07:00,19.4,11.4,29.68,East,90,0.7,0.7,71,0.00,,,0.00,WUHU216HW,2013-02-03 02:07:00,
2013-02-02 21:08:00,19.4,11.4,29.68,East,90,0.4,0.7,71,0.00,,,0.00,WUHU216HW,2013-02-03 02:08:00,
2013-02-02 21:10:00,19.4,11.4,29.68,SE,135,0.0,0.7,71,0.00,,,0.00,WUHU216HW,2013-02-03 02:10:00,
2013-02-02 21:13:00,19.4,11.4,29.68,ESE,113,0.0,0.7,71,0.00,,,0.00,WUHU216HW,2013-02-03 02:13:00,
2013-02-02 21:15:00,19.3,11.4,29.68,ESE,113,0.7,0.7,71,0.00,,,0.00,WUHU216HW,2013-02-03 02:15:00,
2013-02-02 21:18:00,19.3,11.4,29.68,ESE,113,0.4,0.7,71,0.00,,,0.00,WUHU216HW,2013-02-03 02:18:00,
2013-02-02 21:20:00,19.3,11.4,29.68,ESE,113,0.0,0.7,71,0.00,,,0.00,WUHU216HW,2013-02-03 02:20:00,
2013-02-02 21:23:00,19.1,11.2,29.68,ESE,113,0.0,0.7,71,0.00,,,0.00,WUHU216HW,2013-02-03 02:23:00,
2013-02-02 21:25:00,19.1,11.2,29.68,ESE,113,0.0,0.4,71,0.00,,,0.00,WUHU216HW,2013-02-03 02:25:00,
2013-02-02 21:26:00,19.1,11.2,29.68,ESE,113,0.0,0.4,71,0.00,,,0.00,WUHU216HW,2013-02-03 02:26:00,
2013-02-02 21:28:00,19.1,11.2,29.69,ESE,113,0.2,0.4,71,0.00,,,0.00,WUHU216HW,2013-02-03 02:28:00,
2013-02-02 21:30:00,18.9,11.0,29.68,ESE,113,0.0,0.4,71,0.00,,,0.00,WUHU216HW,2013-02-03 02:30:00,
2013-02-02 21:31:00,18.9,11.0,29.68,ESE,113,0.0,0.4,71,0.00,,,0.00,WUHU216HW,2013-02-03 02:31:00,
2013-02-02 21:33:00,18.7,10.8,29.69,SE,135,0.4,0.7,71,0.00,,,0.00,WUHU216HW,2013-02-03 02:33:00,
2013-02-02 21:35:00,18.7,10.8,29.68,ESE,113,0.0,0.7,71,0.00,,,0.00,WUHU216HW,2013-02-03 02:35:00,
2013-02-02 21:36:00,18.7,10.8,29.68,ESE,113,0.0,0.7,71,0.00,,,0.00,WUHU216HW,2013-02-03 02:36:00,
2013-02-02 21:38:00,18.5,10.6,29.69,ESE,113,0.0,0.7,71,0.00,,,0.00,WUHU216HW,2013-02-03 02:38:00,
2013-02-02 21:40:00,18.5,11.0,29.69,WSW,248,0.0,0.7,72,0.00,,,0.00,WUHU216HW,2013-02-03 02:40:00,
2013-02-02 21:41:00,18.5,11.0,29.69,WSW,248,0.0,0.7,72,0.00,,,0.00,WUHU216HW,2013-02-03 02:41:00,
2013-02-02 21:43:00,18.4,10.4,29.69,WSW,248,0.0,0.0,71,0.00,,,0.00,WUHU216HW,2013-02-03 02:43:00,
2013-02-02 21:46:00,18.4,10.4,29.69,WSW,248,0.0,0.0,71,0.00,,,0.00,WUHU216HW,2013-02-03 02:46:00,
2013-02-02 21:48:00,18.4,10.4,29.68,SE,135,0.0,0.0,71,0.00,,,0.00,WUHU216HW,2013-02-03 02:48:00,
2013-02-02 21:51:00,18.4,10.4,29.68,SE,135,0.0,0.0,71,0.00,,,0.00,WUHU216HW,2013-02-03 02:51:00,
2013-02-02 21:53:00,18.4,10.4,29.68,SE,135,0.0,0.0,71,0.00,,,0.00,WUHU216HW,2013-02-03 02:53:00,
2013-02-02 21:54:00,18.4,10.4,29.68,SE,135,0.0,0.0,71,0.00,,,0.00,WUHU216HW,2013-02-03 02:54:00,
2013-02-02 21:56:00,18.4,10.4,29.68,SE,135,0.0,0.0,71,0.00,,,0.00,WUHU216HW,2013-02-03 02:56:00,
2013-02-02 21:58:00,18.4,10.4,29.68,East,90,0.0,0.0,71,0.00,,,0.00,WUHU216HW,2013-02-03 02:58:00,
2013-02-02 21:59:00,18.4,10.4,29.68,East,90,0.0,0.0,71,0.00,,,0.00,WUHU216HW,2013-02-03 02:59:00,
2013-02-02 22:01:00,18.4,10.8,29.68,East,90,0.0,0.0,72,0.00,,,0.00,WUHU216HW,2013-02-03 03:01:00,
2013-02-02 22:04:00,18.4,10.8,29.68,ESE,113,0.4,0.4,72,0.00,,,0.00,WUHU216HW,2013-02-03 03:04:00,
2013-02-02 22:06:00,18.4,10.8,29.68,ESE,113,0.7,0.7,72,0.00,,,0.00,WUHU216HW,2013-02-03 03:06:00,
2013-02-02 22:07:00,18.4,10.8,29.68,ESE,113,0.7,0.7,72,0.00,,,0.00,WUHU216HW,2013-02-03 03:07:00,
2013-02-02 22:09:00,18.4,10.8,29.68,ESE,113,0.4,0.7,72,0.00,,,0.00,WUHU216HW,2013-02-03 03:09:00,
2013-02-02 22:11:00,18.5,11.3,29.68,SE,135,0.4,0.9,73,0.00,,,0.00,WUHU216HW,2013-02-03 03:11:00,
2013-02-02 22:12:00,18.5,11.3,29.68,SE,135,0.4,0.9,73,0.00,,,0.00,WUHU216HW,2013-02-03 03:12:00,
2013-02-02 22:14:00,18.5,11.3,29.68,SSE,158,0.4,0.9,73,0.00,,,0.00,WUHU216HW,2013-02-03 03:14:00,
2013-02-02 22:15:00,18.5,11.3,29.68,SE,135,0.4,0.9,73,0.00,,,0.00,WUHU216HW,2013-02-03 03:15:00,
2013-02-02 22:16:00,18.5,11.3,29.68,SE,135,1.1,1.1,73,0.00,,,0.00,WUHU216HW,2013-02-03 03:16:00,
2013-02-02 22:17:00,18.5,11.3,29.68,SE,135,1.1,1.1,73,0.00,,,0.00,WUHU216HW,2013-02-03 03:17:00,
2013-02-02 22:19:00,18.5,11.3,29.68,SE,135,1.1,1.8,73,0.00,,,0.00,WUHU216HW,2013-02-03 03:19:00,
2013-02-02 22:20:00,18.7,11.1,29.68,SE,135,0.7,1.8,72,0.00,,,0.00,WUHU216HW,2013-02-03 03:20:00,
2013-02-02 22:21:00,18.7,11.1,29.68,SE,135,1.1,1.8,72,0.00,,,0.00,WUHU216HW,2013-02-03 03:21:00,
2013-02-02 22:22:00,18.7,11.1,29.68,SSW,203,0.7,1.8,72,0.00,,,0.00,WUHU216HW,2013-02-03 03:22:00,
2013-02-02 22:24:00,18.7,11.1,29.68,SSE,158,0.2,1.8,72,0.00,,,0.00,WUHU216HW,2013-02-03 03:24:00,
2013-02-02 22:25:00,18.9,11.3,29.68,SE,135,0.4,1.8,72,0.00,,,0.00,WUHU216HW,2013-02-03 03:25:00,
2013-02-02 22:26:00,18.9,11.3,29.68,SE,135,0.4,1.8,72,0.00,,,0.00,WUHU216HW,2013-02-03 03:26:00,
2013-02-02 22:27:00,18.9,11.3,29.68,SE,135,0.9,1.6,72,0.00,,,0.00,WUHU216HW,2013-02-03 03:27:00,
2013-02-02 22:29:00,19.1,11.4,29.68,SSE,158,1.8,1.8,72,0.00,,,0.00,WUHU216HW,2013-02-03 03:29:00,
2013-02-02 22:30:00,18.9,11.0,29.68,SE,135,0.7,1.8,71,0.00,,,0.00,WUHU216HW,2013-02-03 03:30:00,
2013-02-02 22:31:00,19.1,11.2,29.68,SE,135,0.7,1.8,71,0.00,,,0.00,WUHU216HW,2013-02-03 03:31:00,
2013-02-02 22:32:00,19.1,11.2,29.68,SSE,158,0.7,1.8,71,0.00,,,0.00,WUHU216HW,2013-02-03 03:32:00,
2013-02-02 22:34:00,19.1,11.2,29.68,SSE,158,0.7,1.8,71,0.00,,,0.00,WUHU216HW,2013-02-03 03:34:00,
2013-02-02 22:35:00,19.1,11.2,29.68,SE,135,0.7,1.8,71,0.00,,,0.00,WUHU216HW,2013-02-03 03:35:00,
2013-02-02 22:36:00,19.1,11.2,29.68,SSE,158,0.7,1.8,71,0.00,,,0.00,WUHU216HW,2013-02-03 03:36:00,
2013-02-02 22:37:00,19.1,11.2,29.68,SSE,158,1.1,1.8,71,0.00,,,0.00,WUHU216HW,2013-02-03 03:37:00,
2013-02-02 22:39:00,19.1,10.8,29.68,South,180,1.8,1.8,70,0.00,,,0.00,WUHU216HW,2013-02-03 03:39:00,
2013-02-02 22:41:00,19.1,10.8,29.68,SSE,158,1.3,1.8,70,0.00,,,0.00,WUHU216HW,2013-02-03 03:41:00,
2013-02-02 22:42:00,19.1,10.8,29.68,WSW,248,1.8,1.8,70,0.00,,,0.00,WUHU216HW,2013-02-03 03:42:00,
2013-02-02 22:44:00,19.1,10.8,29.68,SSW,203,2.5,2.9,70,0.00,,,0.00,WUHU216HW,2013-02-03 03:44:00,
2013-02-02 22:46:00,19.3,11.0,29.68,South,180,2.2,2.9,70,0.00,,,0.00,WUHU216HW,2013-02-03 03:46:00,
2013-02-02 22:47:00,19.3,11.0,29.67,SSW,203,1.1,2.9,70,0.00,,,0.00,WUHU216HW,2013-02-03 03:47:00,
2013-02-02 22:48:00,19.3,11.0,29.67,SSE,158,1.1,2.9,70,0.00,,,0.00,WUHU216HW,2013-02-03 03:48:00,
2013-02-02 22:49:00,19.3,11.0,29.67,SSE,158,1.3,2.9,70,0.00,,,0.00,WUHU216HW,2013-02-03 03:49:00,
2013-02-02 22:51:00,19.3,11.0,29.67,SSE,158,2.0,2.9,70,0.00,,,0.00,WUHU216HW,2013-02-03 03:51:00,
2013-02-02 22:52:00,19.3,11.0,29.68,SSE,158,3.1,3.1,70,0.00,,,0.00,WUHU216HW,2013-02-03 03:52:00,
2013-02-02 22:53:00,19.3,11.0,29.68,SE,135,1.1,3.1,70,0.00,,,0.00,WUHU216HW,2013-02-03 03:53:00,
2013-02-02 22:54:00,19.3,11.0,29.68,SE,135,1.1,3.1,70,0.00,,,0.00,WUHU216HW,2013-02-03 03:54:00,
2013-02-02 22:57:00,19.3,10.6,29.67,South,180,2.5,3.1,69,0.00,,,0.00,WUHU216HW,2013-02-03 03:57:00,
2013-02-02 22:58:00,19.3,10.6,29.67,SSE,158,1.8,3.1,69,0.00,,,0.00,WUHU216HW,2013-02-03 03:58:00,
2013-02-02 22:59:00,19.3,10.6,29.67,SSW,203,1.8,3.1,69,0.00,,,0.00,WUHU216HW,2013-02-03 03:59:00,
2013-02-02 23:02:00,19.3,10.6,29.68,SSW,203,1.3,2.5,69,0.00,,,0.00,WUHU216HW,2013-02-03 04:02:00,
2013-02-02 23:03:00,19.4,10.8,29.68,SE,135,0.9,2.5,69,0.00,,,0.00,WUHU216HW,2013-02-03 04:03:00,
2013-02-02 23:05:00,19.3,10.6,29.67,SSE,158,0.4,2.5,69,0.00,,,0.00,WUHU216HW,2013-02-03 04:05:00,
2013-02-02 23:07:00,19.3,10.6,29.68,SE,135,0.9,1.8,69,0.00,,,0.00,WUHU216HW,2013-02-03 04:07:00,
2013-02-02 23:08:00,19.3,10.6,29.67,South,180,2.7,2.7,69,0.00,,,0.00,WUHU216HW,2013-02-03 04:08:00,
2013-02-02 23:10:00,19.3,10.6,29.68,South,180,0.9,2.7,69,0.00,,,0.00,WUHU216HW,2013-02-03 04:10:00,
2013-02-02 23:12:00,19.3,10.6,29.68,SE,135,0.9,2.7,69,0.00,,,0.00,WUHU216HW,2013-02-03 04:12:00,
2013-02-02 23:13:00,19.3,10.6,29.67,SSE,158,1.3,2.7,69,0.00,,,0.00,WUHU216HW,2013-02-03 04:13:00,
2013-02-02 23:15:00,19.3,10.6,29.67,SSE,158,1.8,2.7,69,0.00,,,0.00,WUHU216HW,2013-02-03 04:15:00,
2013-02-02 23:17:00,19.3,10.6,29.67,South,180,1.8,2.7,69,0.00,,,0.00,WUHU216HW,2013-02-03 04:17:00,
2013-02-02 23:18:00,19.3,10.6,29.67,SSE,158,1.1,1.8,69,0.00,,,0.00,WUHU216HW,2013-02-03 04:18:00,
2013-02-02 23:20:00,19.3,10.6,29.67,SSE,158,0.0,1.8,69,0.00,,,0.00,WUHU216HW,2013-02-03 04:20:00,
2013-02-02 23:22:00,19.3,10.6,29.67,South,180,1.3,1.8,69,0.00,,,0.00,WUHU216HW,2013-02-03 04:22:00,
2013-02-02 23:23:00,19.3,10.6,29.67,SSE,158,0.7,1.8,69,0.00,,,0.00,WUHU216HW,2013-02-03 04:23:00,
2013-02-02 23:25:00,19.3,10.6,29.67,SE,135,0.7,1.8,69,0.00,,,0.00,WUHU216HW,2013-02-03 04:25:00,
2013-02-02 23:27:00,19.3,10.6,29.67,SE,135,0.4,1.3,69,0.00,,,0.00,WUHU216HW,2013-02-03 04:27:00,
2013-02-02 23:28:00,19.3,10.6,29.67,SE,135,0.4,1.3,69,0.00,,,0.00,WUHU216HW,2013-02-03 04:28:00,
2013-02-02 23:30:00,19.3,10.6,29.67,SE,135,1.1,1.3,69,0.00,,,0.00,WUHU216HW,2013-02-03 04:30:00,
2013-02-02 23:32:00,19.3,10.6,29.67,SSE,158,0.0,1.1,69,0.00,,,0.00,WUHU216HW,2013-02-03 04:32:00,
2013-02-02 23:33:00,19.3,10.6,29.67,SE,135,0.4,1.1,69,0.00,,,0.00,WUHU216HW,2013-02-03 04:33:00,
2013-02-02 23:34:00,19.3,10.6,29.67,SE,135,0.4,1.1,69,0.00,,,0.00,WUHU216HW,2013-02-03 04:34:00,
2013-02-02 23:35:00,19.3,10.6,29.68,South,180,0.9,1.1,69,0.00,,,0.00,WUHU216HW,2013-02-03 04:35:00,
2013-02-02 23:37:00,19.3,10.6,29.67,SSE,158,1.3,1.3,69,0.00,,,0.00,WUHU216HW,2013-02-03 04:37:00,
2013-02-02 23:38:00,19.3,10.6,29.67,SE,135,0.7,1.3,69,0.00,,,0.00,WUHU216HW,2013-02-03 04:38:00,
2013-02-02 23:39:00,19.3,10.6,29.67,SE,135,0.7,1.3,69,0.00,,,0.00,WUHU216HW,2013-02-03 04:39:00,
2013-02-02 23:40:00,19.3,10.6,29.67,SE,135,0.7,1.3,69,0.00,,,0.00,WUHU216HW,2013-02-03 04:40:00,
2013-02-02 23:42:00,19.4,10.8,29.67,ESE,113,0.4,1.3,69,0.00,,,0.00,WUHU216HW,2013-02-03 04:42:00,
2013-02-02 23:43:00,19.3,10.6,29.67,ESE,113,0.9,1.3,69,0.00,,,0.00,WUHU216HW,2013-02-03 04:43:00,
2013-02-02 23:44:00,19.3,10.6,29.67,ESE,113,0.9,1.3,69,0.00,,,0.00,WUHU216HW,2013-02-03 04:44:00,
2013-02-02 23:45:00,19.4,10.8,29.67,ESE,113,0.4,1.3,69,0.00,,,0.00,WUHU216HW,2013-02-03 04:45:00,
2013-02-02 23:48:00,19.4,10.8,29.67,ESE,113,0.2,0.9,69,0.00,,,0.00,WUHU216HW,2013-02-03 04:48:00,
2013-02-02 23:49:00,19.3,10.6,29.67,ESE,113,0.7,0.9,69,0.00,,,0.00,WUHU216HW,2013-02-03 04:49:00,
2013-02-02 23:51:00,19.4,10.8,29.67,ESE,113,0.9,0.9,69,0.00,,,0.00,WUHU216HW,2013-02-03 04:51:00,
2013-02-02 23:53:00,19.4,10.8,29.67,ESE,113,0.4,0.9,69,0.00,,,0.00,WUHU216HW,2013-02-03 04:53:00,
2013-02-02 23:54:00,19.4,10.8,29.67,ESE,113,0.4,0.9,69,0.00,,,0.00,WUHU216HW,2013-02-03 04:54:00,
2013-02-02 23:56:00,19.4,10.8,29.67,ESE,113,0.7,0.9,69,0.00,,,0.00,WUHU216HW,2013-02-03 04:56:00,
2013-02-02 23:58:00,19.4,10.8,29.67,ESE,113,1.1,1.1,69,0.00,,,0.00,WUHU216HW,2013-02-03 04:58:00,
2013-02-02 23:59:00,19.4,10.8,29.67,ESE,113,1.1,1.1,69,0.00,,,0.00,WUHU216HW,2013-02-03 04:59:00,